Wetterdaten: Donnerstag, 29.07.2021
Datum Zeit Temp. Aussen Temp. o. S. Temp +5cm Feuchte Auss Luftdruck Regen Sonnenschein Regendauer Solar Windben Empfang
29.07.2021 00:00 18,1 C 17,2 C 14,5 C 79 % 1011,2 hPa 0,0 l/m 0 min 2 min 0 W/m 19,3 km/h (3 Bft) 100,00 %
29.07.2021 00:02 18,0 C 17,2 C 14,5 C 79 % 1011,1 hPa 0,0 l/m 0 min 0 min 0 W/m 22,5 km/h (4 Bft) 100,00 %
29.07.2021 00:04 18,0 C 17,2 C 14,5 C 80 % 1011,2 hPa 0,0 l/m 0 min 0 min 0 W/m 19,3 km/h (3 Bft) 97,87 %
29.07.2021 00:08 17,9 C 17,2 C 15,0 C 80 % 1011,3 hPa 0,0 l/m 0 min 0 min 0 W/m 16,1 km/h (3 Bft) 100,00 %
29.07.2021 00:10 17,9 C 16,7 C 14,5 C 81 % 1011,3 hPa 0,2 l/m 0 min 2 min 0 W/m 41,8 km/h (6 Bft) 100,00 %
29.07.2021 00:12 17,8 C 16,7 C 13,9 C 82 % 1011,4 hPa 0,0 l/m 0 min 2 min 0 W/m 16,1 km/h (3 Bft) 100,00 %
29.07.2021 00:14 17,8 C 16,7 C 13,9 C 83 % 1011,4 hPa 0,0 l/m 0 min 2 min 0 W/m 12,9 km/h (3 Bft) 100,00 %
29.07.2021 00:16 17,6 C 16,7 C 13,9 C 83 % 1011,3 hPa 0,0 l/m 0 min 2 min 0 W/m 6,4 km/h (2 Bft) 97,56 %
29.07.2021 00:18 17,6 C 16,1 C 13,9 C 84 % 1011,4 hPa 0,0 l/m 0 min 0 min 0 W/m 12,9 km/h (3 Bft) 100,00 %
29.07.2021 00:20 17,5 C 16,1 C 13,9 C 84 % 1011,3 hPa 0,0 l/m 0 min 0 min 0 W/m 12,9 km/h (3 Bft) 100,00 %
29.07.2021 00:22 17,4 C 16,1 C 13,9 C 84 % 1011,3 hPa 0,0 l/m 0 min 0 min 0 W/m 6,4 km/h (2 Bft) 100,00 %
29.07.2021 00:24 17,4 C 16,1 C 13,9 C 84 % 1011,3 hPa 0,0 l/m 0 min 0 min 0 W/m 12,9 km/h (3 Bft) 100,00 %
29.07.2021 00:26 17,3 C 16,1 C 13,9 C 85 % 1011,2 hPa 0,0 l/m 0 min 0 min 0 W/m 12,9 km/h (3 Bft) 100,00 %
29.07.2021 00:28 17,3 C 16,1 C 13,9 C 85 % 1011,3 hPa 0,0 l/m 0 min 0 min 0 W/m 16,1 km/h (3 Bft) 100,00 %
29.07.2021 00:30 17,2 C 16,1 C 13,9 C 85 % 1011,2 hPa 0,0 l/m 0 min 2 min 0 W/m 12,9 km/h (3 Bft) 100,00 %
29.07.2021 00:32 17,1 C 16,1 C 13,9 C 86 % 1011,2 hPa 0,0 l/m 0 min 2 min 0 W/m 9,7 km/h (2 Bft) 100,00 %
29.07.2021 00:34 17,1 C 16,1 C 13,9 C 86 % 1011,2 hPa 0,0 l/m 0 min 0 min 0 W/m 6,4 km/h (2 Bft) 100,00 %
29.07.2021 00:36 17,1 C 16,1 C 13,9 C 86 % 1011,2 hPa 0,0 l/m 0 min 0 min 0 W/m 6,4 km/h (2 Bft) 97,87 %
29.07.2021 00:38 17,0 C 16,1 C 13,9 C 86 % 1011,1 hPa 0,0 l/m 0 min 0 min 0 W/m 6,4 km/h (2 Bft) 97,87 %
29.07.2021 00:40 17,0 C 16,1 C 13,9 C 86 % 1011,1 hPa 0,0 l/m 0 min 0 min 0 W/m 6,4 km/h (2 Bft) 100,00 %
29.07.2021 00:42 17,0 C 16,1 C 13,9 C 86 % 1011,2 hPa 0,0 l/m 0 min 0 min 0 W/m 6,4 km/h (2 Bft) 100,00 %
29.07.2021 00:44 17,0 C 16,1 C 13,9 C 87 % 1011,2 hPa 0,0 l/m 0 min 0 min 0 W/m 6,4 km/h (2 Bft) 97,87 %
29.07.2021 00:46 17,0 C 16,1 C 13,9 C 87 % 1011,3 hPa 0,0 l/m 0 min 0 min 0 W/m 6,4 km/h (2 Bft) 100,00 %
29.07.2021 00:48 17,0 C 16,1 C 13,9 C 87 % 1011,2 hPa 0,0 l/m 0 min 0 min 0 W/m 3,2 km/h (1 Bft) 95,74 %
29.07.2021 00:50 17,0 C 16,1 C 14,5 C 87 % 1011,2 hPa 0,0 l/m 0 min 0 min 0 W/m 6,4 km/h (2 Bft) 97,87 %
29.07.2021 00:52 17,0 C 16,1 C 14,5 C 88 % 1011,1 hPa 0,0 l/m 0 min 0 min 0 W/m 3,2 km/h (1 Bft) 95,65 %
29.07.2021 00:54 16,9 C 16,1 C 14,5 C 88 % 1011,1 hPa 0,0 l/m 0 min 0 min 0 W/m 3,2 km/h (1 Bft) 95,74 %
29.07.2021 00:56 16,9 C 16,1 C 14,5 C 87 % 1011,1 hPa 0,0 l/m 0 min 0 min 0 W/m 3,2 km/h (1 Bft) 95,74 %
29.07.2021 00:58 16,9 C 16,1 C 14,5 C 87 % 1011,1 hPa 0,0 l/m 0 min 0 min 0 W/m 6,4 km/h (2 Bft) 95,74 %
29.07.2021 01:00 16,8 C 16,1 C 14,5 C 87 % 1011,2 hPa 0,0 l/m 0 min 0 min 0 W/m 3,2 km/h (1 Bft) 93,62 %
29.07.2021 01:02 16,8 C 16,1 C 14,5 C 88 % 1011,2 hPa 0,0 l/m 0 min 0 min 0 W/m 6,4 km/h (2 Bft) 95,74 %
29.07.2021 01:04 16,8 C 16,1 C 14,5 C 87 % 1011,2 hPa 0,0 l/m 0 min 0 min 0 W/m 9,7 km/h (2 Bft) 93,48 %
29.07.2021 01:06 16,8 C 16,1 C 14,5 C 88 % 1011,2 hPa 0,0 l/m 0 min 0 min 0 W/m 9,7 km/h (2 Bft) 95,74 %
29.07.2021 01:08 16,7 C 16,1 C 14,5 C 88 % 1011,2 hPa 0,0 l/m 0 min 0 min 0 W/m 16,1 km/h (3 Bft) 95,74 %
29.07.2021 01:10 16,7 C 16,1 C 14,5 C 88 % 1011,3 hPa 0,0 l/m 0 min 0 min 0 W/m 12,9 km/h (3 Bft) 93,62 %
29.07.2021 01:12 16,6 C 16,1 C 14,5 C 88 % 1011,4 hPa 0,0 l/m 0 min 2 min 0 W/m 19,3 km/h (3 Bft) 95,74 %
29.07.2021 01:14 16,6 C 16,1 C 14,5 C 88 % 1011,4 hPa 0,0 l/m 0 min 2 min 0 W/m 12,9 km/h (3 Bft) 95,74 %
29.07.2021 01:16 16,6 C 15,6 C 13,9 C 88 % 1011,4 hPa 0,2 l/m 0 min 2 min 0 W/m 9,7 km/h (2 Bft) 95,65 %
29.07.2021 01:18 16,6 C 15,6 C 13,4 C 88 % 1011,4 hPa 0,2 l/m 0 min 2 min 0 W/m 19,3 km/h (3 Bft) 95,74 %
29.07.2021 01:20 16,6 C 15,6 C 13,4 C 89 % 1011,4 hPa 0,0 l/m 0 min 2 min 0 W/m 16,1 km/h (3 Bft) 95,74 %
29.07.2021 01:22 16,5 C 15,6 C 13,4 C 89 % 1011,4 hPa 0,0 l/m 0 min 2 min 0 W/m 19,3 km/h (3 Bft) 93,62 %
29.07.2021 01:24 16,5 C 15,6 C 13,4 C 89 % 1011,4 hPa 0,0 l/m 0 min 2 min 0 W/m 16,1 km/h (3 Bft) 95,74 %
29.07.2021 01:26 16,5 C 15,0 C 13,4 C 90 % 1011,4 hPa 0,2 l/m 0 min 0 min 0 W/m 12,9 km/h (3 Bft) 93,62 %
29.07.2021 01:28 16,4 C 15,0 C 13,4 C 90 % 1011,4 hPa 0,0 l/m 0 min 0 min 0 W/m 12,9 km/h (3 Bft) 93,48 %
29.07.2021 01:30 16,4 C 15,0 C 13,4 C 90 % 1011,4 hPa 0,0 l/m 0 min 2 min 0 W/m 29,0 km/h (5 Bft) 93,62 %
29.07.2021 01:32 16,3 C 15,0 C 13,4 C 90 % 1011,3 hPa 0,0 l/m 0 min 2 min 0 W/m 19,3 km/h (3 Bft) 97,87 %
29.07.2021 01:34 16,3 C 15,0 C 13,4 C 90 % 1011,3 hPa 0,0 l/m 0 min 2 min 0 W/m 19,3 km/h (3 Bft) 96,00 %
29.07.2021 01:36 16,3 C 15,0 C 13,4 C 90 % 1011,2 hPa 0,0 l/m 0 min 2 min 0 W/m 22,5 km/h (4 Bft) 95,74 %
29.07.2021 01:38 16,1 C 15,0 C 13,4 C 91 % 1011,2 hPa 0,2 l/m 0 min 2 min 0 W/m 16,1 km/h (3 Bft) 94,44 %
29.07.2021 01:40 16,1 C 15,0 C 13,4 C 91 % 1011,2 hPa 0,0 l/m 0 min 2 min 0 W/m 12,9 km/h (3 Bft) 97,87 %
29.07.2021 01:42 16,1 C 15,0 C 13,4 C 91 % 1011,1 hPa 0,0 l/m 0 min 2 min 0 W/m 12,9 km/h (3 Bft) 100,00 %
29.07.2021 01:44 16,0 C 15,0 C 13,4 C 91 % 1011,2 hPa 0,0 l/m 0 min 2 min 0 W/m 16,1 km/h (3 Bft) 100,00 %
29.07.2021 01:46 16,0 C 15,0 C 13,4 C 91 % 1011,3 hPa 0,0 l/m 0 min 2 min 0 W/m 16,1 km/h (3 Bft) 97,87 %
29.07.2021 01:48 16,0 C 15,0 C 13,4 C 91 % 1011,3 hPa 0,0 l/m 0 min 2 min 0 W/m 22,5 km/h (4 Bft) 100,00 %
29.07.2021 01:50 16,0 C 15,0 C 13,4 C 91 % 1011,2 hPa 0,0 l/m 0 min 2 min 0 W/m 19,3 km/h (3 Bft) 100,00 %
29.07.2021 01:52 15,9 C 15,0 C 13,4 C 92 % 1011,0 hPa 0,0 l/m 0 min 2 min 0 W/m 19,3 km/h (3 Bft) 97,87 %
29.07.2021 01:54 15,9 C 15,0 C 13,4 C 92 % 1010,9 hPa 0,0 l/m 0 min 0 min 0 W/m 12,9 km/h (3 Bft) 97,83 %
29.07.2021 01:56 15,9 C 15,0 C 13,4 C 92 % 1010,9 hPa 0,0 l/m 0 min 0 min 0 W/m 12,9 km/h (3 Bft) 100,00 %
29.07.2021 01:58 15,9 C 15,0 C 13,4 C 92 % 1010,9 hPa 0,0 l/m 0 min 0 min 0 W/m 12,9 km/h (3 Bft) 97,87 %
29.07.2021 02:00 15,9 C 15,0 C 13,4 C 92 % 1010,9 hPa 0,0 l/m 0 min 0 min 0 W/m 19,3 km/h (3 Bft) 100,00 %
29.07.2021 02:02 15,8 C 15,0 C 13,4 C 92 % 1010,8 hPa 0,0 l/m 0 min 0 min 0 W/m 19,3 km/h (3 Bft) 100,00 %
29.07.2021 02:04 15,8 C 15,0 C 13,4 C 92 % 1010,9 hPa 0,0 l/m 0 min 0 min 0 W/m 16,1 km/h (3 Bft) 100,00 %
29.07.2021 02:06 15,8 C 15,0 C 13,4 C 92 % 1010,9 hPa 0,0 l/m 0 min 0 min 0 W/m 19,3 km/h (3 Bft) 100,00 %
29.07.2021 02:08 15,8 C 15,0 C 13,4 C 92 % 1010,9 hPa 0,0 l/m 0 min 0 min 0 W/m 12,9 km/h (3 Bft) 100,00 %
29.07.2021 02:10 15,8 C 15,0 C 13,4 C 92 % 1010,9 hPa 0,0 l/m 0 min 0 min 0 W/m 6,4 km/h (2 Bft) 100,00 %
29.07.2021 02:12 15,8 C 15,0 C 13,4 C 92 % 1010,9 hPa 0,0 l/m 0 min 0 min 0 W/m 12,9 km/h (3 Bft) 100,00 %
29.07.2021 02:14 15,8 C 15,0 C 13,4 C 92 % 1010,8 hPa 0,0 l/m 0 min 0 min 0 W/m 19,3 km/h (3 Bft) 97,87 %
29.07.2021 02:16 15,8 C 15,0 C 13,4 C 92 % 1010,8 hPa 0,0 l/m 0 min 0 min 0 W/m 19,3 km/h (3 Bft) 100,00 %
29.07.2021 02:18 15,8 C 15,0 C 13,4 C 92 % 1010,8 hPa 0,0 l/m 0 min 0 min 0 W/m 19,3 km/h (3 Bft) 100,00 %
29.07.2021 02:20 15,8 C 15,0 C 13,4 C 92 % 1010,8 hPa 0,0 l/m 0 min 0 min 0 W/m 12,9 km/h (3 Bft) 97,87 %
29.07.2021 02:22 15,8 C 15,0 C 13,4 C 92 % 1010,8 hPa 0,0 l/m 0 min 0 min 0 W/m 12,9 km/h (3 Bft) 97,87 %
29.07.2021 02:24 15,7 C 15,0 C 13,4 C 92 % 1010,7 hPa 0,0 l/m 0 min 0 min 0 W/m 16,1 km/h (3 Bft) 100,00 %
29.07.2021 02:26 15,7 C 15,0 C 13,4 C 92 % 1010,6 hPa 0,0 l/m 0 min 0 min 0 W/m 19,3 km/h (3 Bft) 100,00 %
29.07.2021 02:28 15,7 C 15,0 C 13,4 C 92 % 1010,6 hPa 0,0 l/m 0 min 0 min 0 W/m 16,1 km/h (3 Bft) 100,00 %
29.07.2021 02:30 15,7 C 15,0 C 13,4 C 92 % 1010,8 hPa 0,0 l/m 0 min 0 min 0 W/m 19,3 km/h (3 Bft) 100,00 %
29.07.2021 02:32 15,6 C 15,0 C 13,4 C 92 % 1010,9 hPa 0,0 l/m 0 min 0 min 0 W/m 16,1 km/h (3 Bft) 97,92 %
29.07.2021 02:34 15,6 C 15,0 C 13,4 C 92 % 1010,9 hPa 0,0 l/m 0 min 0 min 0 W/m 16,1 km/h (3 Bft) 100,00 %
29.07.2021 02:36 15,6 C 15,0 C 13,4 C 92 % 1010,9 hPa 0,0 l/m 0 min 0 min 0 W/m 16,1 km/h (3 Bft) 100,00 %
29.07.2021 02:38 15,6 C 15,0 C 13,4 C 92 % 1010,9 hPa 0,0 l/m 0 min 0 min 0 W/m 19,3 km/h (3 Bft) 100,00 %
29.07.2021 02:40 15,6 C 15,0 C 13,4 C 92 % 1010,9 hPa 0,0 l/m 0 min 0 min 0 W/m 16,1 km/h (3 Bft) 100,00 %
29.07.2021 02:42 15,7 C 15,0 C 13,4 C 92 % 1010,9 hPa 0,0 l/m 0 min 0 min 0 W/m 12,9 km/h (3 Bft) 100,00 %
29.07.2021 02:44 15,7 C 15,0 C 13,4 C 92 % 1010,9 hPa 0,0 l/m 0 min 0 min 0 W/m 19,3 km/h (3 Bft) 100,00 %
29.07.2021 02:46 15,7 C 15,0 C 13,4 C 92 % 1010,9 hPa 0,0 l/m 0 min 2 min 0 W/m 16,1 km/h (3 Bft) 100,00 %
29.07.2021 02:48 15,7 C 15,0 C 13,4 C 92 % 1010,9 hPa 0,0 l/m 0 min 2 min 0 W/m 16,1 km/h (3 Bft) 100,00 %
29.07.2021 02:50 15,6 C 15,0 C 13,4 C 92 % 1010,8 hPa 0,0 l/m 0 min 2 min 0 W/m 12,9 km/h (3 Bft) 100,00 %
29.07.2021 02:52 15,6 C 15,0 C 13,4 C 92 % 1010,8 hPa 0,0 l/m 0 min 0 min 0 W/m 22,5 km/h (4 Bft) 100,00 %
29.07.2021 02:54 15,7 C 15,0 C 13,4 C 92 % 1010,7 hPa 0,0 l/m 0 min 2 min 0 W/m 19,3 km/h (3 Bft) 100,00 %
29.07.2021 02:56 15,6 C 15,0 C 13,4 C 92 % 1010,7 hPa 0,0 l/m 0 min 2 min 0 W/m 12,9 km/h (3 Bft) 100,00 %
29.07.2021 02:58 15,6 C 15,0 C 13,4 C 92 % 1010,7 hPa 0,0 l/m 0 min 2 min 0 W/m 12,9 km/h (3 Bft) 100,00 %
29.07.2021 03:00 15,7 C 15,0 C 13,4 C 92 % 1010,7 hPa 0,0 l/m 0 min 2 min 0 W/m 9,7 km/h (2 Bft) 100,00 %
29.07.2021 03:02 15,7 C 15,0 C 13,4 C 92 % 1010,7 hPa 0,0 l/m 0 min 2 min 0 W/m 9,7 km/h (2 Bft) 97,92 %
29.07.2021 03:04 15,7 C 15,0 C 13,4 C 92 % 1010,7 hPa 0,2 l/m 0 min 2 min 0 W/m 19,3 km/h (3 Bft) 100,00 %
29.07.2021 03:06 15,7 C 15,0 C 13,4 C 92 % 1010,6 hPa 0,0 l/m 0 min 2 min 0 W/m 16,1 km/h (3 Bft) 100,00 %
29.07.2021 03:08 15,6 C 15,0 C 13,4 C 92 % 1010,6 hPa 0,0 l/m 0 min 2 min 0 W/m 22,5 km/h (4 Bft) 97,87 %
29.07.2021 03:10 15,6 C 15,0 C 13,4 C 92 % 1010,6 hPa 0,0 l/m 0 min 2 min 0 W/m 19,3 km/h (3 Bft) 97,87 %
29.07.2021 03:12 15,6 C 15,0 C 13,4 C 92 % 1010,6 hPa 0,0 l/m 0 min 0 min 0 W/m 19,3 km/h (3 Bft) 97,87 %
29.07.2021 03:14 15,6 C 15,0 C 13,4 C 92 % 1010,6 hPa 0,0 l/m 0 min 0 min 0 W/m 19,3 km/h (3 Bft) 97,87 %
29.07.2021 03:16 15,6 C 15,0 C 13,4 C 92 % 1010,6 hPa 0,0 l/m 0 min 2 min 0 W/m 9,7 km/h (2 Bft) 97,83 %
29.07.2021 03:18 15,6 C 15,0 C 13,4 C 92 % 1010,5 hPa 0,0 l/m 0 min 2 min 0 W/m 16,1 km/h (3 Bft) 97,87 %
29.07.2021 03:20 15,6 C 15,0 C 13,4 C 92 % 1010,5 hPa 0,0 l/m 0 min 0 min 0 W/m 29,0 km/h (5 Bft) 97,87 %
29.07.2021 03:22 15,5 C 15,0 C 13,4 C 92 % 1010,5 hPa 0,0 l/m 0 min 0 min 0 W/m 22,5 km/h (4 Bft) 97,87 %
29.07.2021 03:24 15,5 C 15,0 C 13,4 C 93 % 1010,5 hPa 0,0 l/m 0 min 0 min 0 W/m 25,7 km/h (4 Bft) 95,74 %
29.07.2021 03:26 15,5 C 15,0 C 13,4 C 93 % 1010,5 hPa 0,0 l/m 0 min 0 min 0 W/m 25,7 km/h (4 Bft) 100,00 %
29.07.2021 03:28 15,5 C 14,4 C 13,4 C 93 % 1010,5 hPa 0,0 l/m 0 min 0 min 0 W/m 9,7 km/h (2 Bft) 97,87 %
29.07.2021 03:30 15,5 C 14,4 C 13,4 C 93 % 1010,5 hPa 0,0 l/m 0 min 0 min 0 W/m 19,3 km/h (3 Bft) 97,87 %
29.07.2021 03:32 15,5 C 14,4 C 13,4 C 93 % 1010,4 hPa 0,0 l/m 0 min 0 min 0 W/m 6,4 km/h (2 Bft) 95,83 %
29.07.2021 03:34 15,5 C 15,0 C 13,4 C 93 % 1010,5 hPa 0,0 l/m 0 min 0 min 0 W/m 9,7 km/h (2 Bft) 95,74 %
29.07.2021 03:36 15,4 C 14,4 C 13,4 C 93 % 1010,5 hPa 0,0 l/m 0 min 0 min 0 W/m 25,7 km/h (4 Bft) 95,74 %
29.07.2021 03:38 15,4 C 14,4 C 13,4 C 92 % 1010,5 hPa 0,0 l/m 0 min 0 min 0 W/m 12,9 km/h (3 Bft) 95,65 %
29.07.2021 03:40 15,4 C 14,4 C 13,4 C 92 % 1010,5 hPa 0,0 l/m 0 min 0 min 0 W/m 19,3 km/h (3 Bft) 95,74 %
29.07.2021 03:42 15,4 C 14,4 C 13,4 C 92 % 1010,5 hPa 0,0 l/m 0 min 0 min 0 W/m 12,9 km/h (3 Bft) 93,62 %
29.07.2021 03:44 15,4 C 14,4 C 13,4 C 92 % 1010,5 hPa 0,0 l/m 0 min 0 min 0 W/m 16,1 km/h (3 Bft) 97,87 %
29.07.2021 03:46 15,4 C 14,4 C 13,4 C 92 % 1010,5 hPa 0,0 l/m 0 min 0 min 0 W/m 12,9 km/h (3 Bft) 95,74 %
29.07.2021 03:48 15,4 C 14,4 C 13,9 C 92 % 1010,5 hPa 0,0 l/m 0 min 0 min 0 W/m 12,9 km/h (3 Bft) 95,74 %
29.07.2021 03:50 15,4 C 14,4 C 13,4 C 92 % 1010,4 hPa 0,0 l/m 0 min 0 min 0 W/m 16,1 km/h (3 Bft) 95,65 %
29.07.2021 03:52 15,4 C 14,4 C 13,4 C 92 % 1010,5 hPa 0,0 l/m 0 min 0 min 0 W/m 19,3 km/h (3 Bft) 97,87 %
29.07.2021 03:54 15,3 C 14,4 C 13,4 C 92 % 1010,5 hPa 0,0 l/m 0 min 0 min 0 W/m 29,0 km/h (5 Bft) 95,74 %
29.07.2021 03:56 15,3 C 14,4 C 13,4 C 92 % 1010,5 hPa 0,0 l/m 0 min 0 min 0 W/m 22,5 km/h (4 Bft) 95,74 %
29.07.2021 03:58 15,3 C 14,4 C 13,4 C 92 % 1010,4 hPa 0,0 l/m 0 min 0 min 0 W/m 19,3 km/h (3 Bft) 93,62 %
29.07.2021 04:00 15,3 C 14,4 C 13,4 C 92 % 1010,4 hPa 0,0 l/m 0 min 0 min 0 W/m 19,3 km/h (3 Bft) 93,62 %
29.07.2021 04:02 15,3 C 14,4 C 13,4 C 92 % 1010,4 hPa 0,0 l/m 0 min 0 min 0 W/m 16,1 km/h (3 Bft) 75,00 %
29.07.2021 04:04 15,3 C 14,4 C 13,4 C 92 % 1010,4 hPa 0,0 l/m 0 min 0 min 0 W/m 12,9 km/h (3 Bft) 93,62 %
29.07.2021 04:06 15,3 C 14,4 C 13,4 C 92 % 1010,4 hPa 0,0 l/m 0 min 0 min 0 W/m 19,3 km/h (3 Bft) 91,49 %
29.07.2021 04:08 15,3 C 14,4 C 13,4 C 92 % 1010,4 hPa 0,0 l/m 0 min 0 min 0 W/m 29,0 km/h (5 Bft) 93,62 %
29.07.2021 04:10 15,3 C 14,4 C 13,4 C 92 % 1010,4 hPa 0,0 l/m 0 min 0 min 0 W/m 6,4 km/h (2 Bft) 91,49 %
29.07.2021 04:12 15,2 C 14,4 C 13,4 C 92 % 1010,5 hPa 0,0 l/m 0 min 0 min 0 W/m 6,4 km/h (2 Bft) 93,62 %
29.07.2021 04:14 15,2 C 14,4 C 13,4 C 92 % 1010,4 hPa 0,0 l/m 0 min 0 min 0 W/m 16,1 km/h (3 Bft) 93,48 %
29.07.2021 04:16 15,2 C 14,4 C 13,4 C 92 % 1010,5 hPa 0,0 l/m 0 min 0 min 0 W/m 16,1 km/h (3 Bft) 93,62 %
29.07.2021 04:18 15,2 C 14,4 C 13,4 C 92 % 1010,5 hPa 0,0 l/m 0 min 0 min 0 W/m 6,4 km/h (2 Bft) 93,62 %
29.07.2021 04:20 15,1 C 14,4 C 13,4 C 92 % 1010,5 hPa 0,0 l/m 0 min 0 min 0 W/m 16,1 km/h (3 Bft) 93,62 %
29.07.2021 04:22 15,1 C 14,4 C 13,4 C 92 % 1010,6 hPa 0,0 l/m 0 min 0 min 0 W/m 9,7 km/h (2 Bft) 95,74 %
29.07.2021 04:24 15,1 C 14,4 C 13,4 C 92 % 1010,5 hPa 0,0 l/m 0 min 0 min 0 W/m 12,9 km/h (3 Bft) 95,74 %
29.07.2021 04:26 15,1 C 14,4 C 13,4 C 92 % 1010,5 hPa 0,0 l/m 0 min 0 min 0 W/m 19,3 km/h (3 Bft) 55,56 %
29.07.2021 04:28 15,1 C 14,4 C 13,4 C 92 % 1010,5 hPa 0,0 l/m 0 min 0 min 0 W/m 12,9 km/h (3 Bft) 95,74 %
29.07.2021 04:30 15,1 C 14,4 C 13,4 C 93 % 1010,6 hPa 0,0 l/m 0 min 0 min 0 W/m 16,1 km/h (3 Bft) 95,74 %
29.07.2021 04:32 15,1 C 14,4 C 13,4 C 93 % 1010,5 hPa 0,0 l/m 0 min 0 min 0 W/m 25,7 km/h (4 Bft) 91,67 %
29.07.2021 04:34 15,1 C 14,4 C 13,4 C 93 % 1010,6 hPa 0,0 l/m 0 min 0 min 0 W/m 16,1 km/h (3 Bft) 93,62 %
29.07.2021 04:36 15,1 C 14,4 C 13,4 C 93 % 1010,6 hPa 0,0 l/m 0 min 0 min 0 W/m 12,9 km/h (3 Bft) 91,49 %
29.07.2021 04:38 15,1 C 14,4 C 13,4 C 93 % 1010,6 hPa 0,0 l/m 0 min 0 min 0 W/m 6,4 km/h (2 Bft) 95,74 %
29.07.2021 04:40 15,1 C 14,4 C 13,4 C 93 % 1010,6 hPa 0,0 l/m 0 min 0 min 0 W/m 19,3 km/h (3 Bft) 97,83 %
29.07.2021 04:42 15,1 C 14,4 C 13,4 C 93 % 1010,6 hPa 0,0 l/m 0 min 0 min 0 W/m 12,9 km/h (3 Bft) 93,62 %
29.07.2021 04:44 15,1 C 14,4 C 13,4 C 93 % 1010,6 hPa 0,0 l/m 0 min 0 min 0 W/m 19,3 km/h (3 Bft) 95,74 %
29.07.2021 04:46 15,1 C 14,4 C 13,9 C 93 % 1010,6 hPa 0,0 l/m 0 min 0 min 0 W/m 9,7 km/h (2 Bft) 95,74 %
29.07.2021 04:48 15,1 C 14,4 C 13,9 C 93 % 1010,7 hPa 0,0 l/m 0 min 0 min 0 W/m 12,9 km/h (3 Bft) 97,87 %
29.07.2021 04:50 15,1 C 14,4 C 13,4 C 93 % 1010,7 hPa 0,0 l/m 0 min 0 min 0 W/m 12,9 km/h (3 Bft) 97,87 %
29.07.2021 04:52 15,1 C 14,4 C 13,4 C 93 % 1010,7 hPa 0,0 l/m 0 min 0 min 0 W/m 12,9 km/h (3 Bft) 97,83 %
29.07.2021 04:54 15,1 C 14,4 C 13,4 C 93 % 1010,7 hPa 0,0 l/m 0 min 0 min 0 W/m 22,5 km/h (4 Bft) 97,87 %
29.07.2021 04:56 15,1 C 14,4 C 13,9 C 93 % 1010,7 hPa 0,0 l/m 0 min 0 min 0 W/m 12,9 km/h (3 Bft) 97,87 %
29.07.2021 04:58 15,1 C 14,4 C 13,9 C 93 % 1010,7 hPa 0,0 l/m 0 min 0 min 0 W/m 19,3 km/h (3 Bft) 97,87 %
29.07.2021 05:00 15,1 C 14,4 C 13,9 C 93 % 1010,7 hPa 0,0 l/m 0 min 0 min 0 W/m 19,3 km/h (3 Bft) 97,87 %
29.07.2021 05:02 15,0 C 14,4 C 13,9 C 93 % 1010,7 hPa 0,0 l/m 0 min 0 min 0 W/m 12,9 km/h (3 Bft) 97,87 %
29.07.2021 05:04 15,0 C 14,4 C 13,9 C 93 % 1010,7 hPa 0,0 l/m 0 min 0 min 0 W/m 12,9 km/h (3 Bft) 97,83 %
29.07.2021 05:06 15,1 C 14,4 C 13,9 C 92 % 1010,6 hPa 0,0 l/m 0 min 0 min 0 W/m 16,1 km/h (3 Bft) 97,87 %
29.07.2021 05:08 15,1 C 14,4 C 13,9 C 93 % 1010,7 hPa 0,0 l/m 0 min 0 min 0 W/m 16,1 km/h (3 Bft) 97,87 %
29.07.2021 05:10 15,1 C 14,4 C 13,9 C 93 % 1010,7 hPa 0,0 l/m 0 min 0 min 0 W/m 19,3 km/h (3 Bft) 97,87 %
29.07.2021 05:12 15,1 C 14,4 C 13,9 C 93 % 1010,7 hPa 0,0 l/m 0 min 0 min 0 W/m 12,9 km/h (3 Bft) 95,74 %
29.07.2021 05:14 15,1 C 14,4 C 13,9 C 93 % 1010,7 hPa 0,0 l/m 0 min 0 min 0 W/m 9,7 km/h (2 Bft) 97,87 %
29.07.2021 05:16 15,2 C 14,4 C 13,9 C 93 % 1010,7 hPa 0,0 l/m 0 min 0 min 0 W/m 16,1 km/h (3 Bft) 95,65 %
29.07.2021 05:18 15,2 C 14,4 C 13,9 C 93 % 1010,7 hPa 0,0 l/m 0 min 0 min 0 W/m 16,1 km/h (3 Bft) 100,00 %
29.07.2021 05:20 15,2 C 15,0 C 13,9 C 92 % 1010,7 hPa 0,0 l/m 0 min 0 min 0 W/m 22,5 km/h (4 Bft) 100,00 %
29.07.2021 05:22 15,2 C 15,0 C 13,9 C 92 % 1010,7 hPa 0,0 l/m 0 min 0 min 0 W/m 19,3 km/h (3 Bft) 97,87 %
29.07.2021 05:24 15,3 C 15,0 C 13,9 C 92 % 1010,6 hPa 0,0 l/m 0 min 0 min 0 W/m 16,1 km/h (3 Bft) 100,00 %
29.07.2021 05:26 15,3 C 15,0 C 13,9 C 92 % 1010,7 hPa 0,0 l/m 0 min 0 min 0 W/m 25,7 km/h (4 Bft) 97,87 %
29.07.2021 05:28 15,3 C 15,0 C 13,9 C 92 % 1010,7 hPa 0,0 l/m 0 min 0 min 0 W/m 12,9 km/h (3 Bft) 100,00 %
29.07.2021 05:30 15,3 C 15,0 C 13,9 C 92 % 1010,7 hPa 0,0 l/m 0 min 0 min 0 W/m 19,3 km/h (3 Bft) 100,00 %
29.07.2021 05:32 15,3 C 15,0 C 13,9 C 92 % 1010,7 hPa 0,0 l/m 0 min 0 min 0 W/m 22,5 km/h (4 Bft) 100,00 %
29.07.2021 05:34 15,3 C 15,0 C 13,9 C 92 % 1010,7 hPa 0,0 l/m 0 min 0 min 0 W/m 16,1 km/h (3 Bft) 100,00 %
29.07.2021 05:36 15,4 C 15,0 C 13,9 C 92 % 1010,7 hPa 0,0 l/m 0 min 0 min 0 W/m 19,3 km/h (3 Bft) 100,00 %
29.07.2021 05:38 15,4 C 15,0 C 13,9 C 92 % 1010,7 hPa 0,0 l/m 0 min 0 min 0 W/m 19,3 km/h (3 Bft) 97,87 %
29.07.2021 05:40 15,4 C 15,0 C 13,9 C 92 % 1010,7 hPa 0,0 l/m 0 min 0 min 0 W/m 19,3 km/h (3 Bft) 100,00 %
29.07.2021 05:42 15,4 C 15,0 C 13,9 C 92 % 1010,7 hPa 0,0 l/m 0 min 0 min 0 W/m 16,1 km/h (3 Bft) 100,00 %
29.07.2021 05:44 15,4 C 15,0 C 13,9 C 92 % 1010,7 hPa 0,0 l/m 0 min 0 min 0 W/m 29,0 km/h (5 Bft) 100,00 %
29.07.2021 05:46 15,4 C 15,0 C 13,9 C 91 % 1010,7 hPa 0,0 l/m 0 min 0 min 0 W/m 29,0 km/h (5 Bft) 100,00 %
29.07.2021 05:48 15,4 C 15,0 C 13,9 C 91 % 1010,8 hPa 0,0 l/m 0 min 0 min 0 W/m 16,1 km/h (3 Bft) 97,87 %
29.07.2021 05:50 15,5 C 15,0 C 13,9 C 91 % 1010,7 hPa 0,0 l/m 0 min 0 min 0 W/m 12,9 km/h (3 Bft) 100,00 %
29.07.2021 05:52 15,5 C 15,0 C 13,9 C 91 % 1010,7 hPa 0,0 l/m 0 min 0 min 0 W/m 25,7 km/h (4 Bft) 97,83 %
29.07.2021 05:54 15,5 C 15,0 C 13,9 C 91 % 1010,7 hPa 0,0 l/m 0 min 0 min 0 W/m 22,5 km/h (4 Bft) 100,00 %
29.07.2021 05:56 15,5 C 15,0 C 13,9 C 91 % 1010,7 hPa 0,0 l/m 0 min 0 min 0 W/m 12,9 km/h (3 Bft) 100,00 %
29.07.2021 05:58 15,5 C 15,0 C 13,9 C 91 % 1010,7 hPa 0,0 l/m 0 min 0 min 0 W/m 25,7 km/h (4 Bft) 100,00 %
29.07.2021 06:00 15,5 C 15,0 C 13,9 C 91 % 1010,8 hPa 0,0 l/m 0 min 0 min 0 W/m 19,3 km/h (3 Bft) 97,87 %
29.07.2021 06:02 15,5 C 15,0 C 13,9 C 91 % 1010,8 hPa 0,0 l/m 0 min 0 min 3 W/m 16,1 km/h (3 Bft) 100,00 %
29.07.2021 06:04 15,5 C 15,0 C 13,9 C 90 % 1010,8 hPa 0,0 l/m 0 min 0 min 5 W/m 22,5 km/h (4 Bft) 100,00 %
29.07.2021 06:08 15,5 C 15,0 C 13,9 C 90 % 1010,8 hPa 0,0 l/m 0 min 0 min 6 W/m 29,0 km/h (5 Bft) 100,00 %
29.07.2021 06:10 15,5 C 15,0 C 13,9 C 90 % 1010,8 hPa 0,0 l/m 0 min 0 min 8 W/m 16,1 km/h (3 Bft) 97,87 %
29.07.2021 06:12 15,5 C 15,0 C 13,9 C 90 % 1010,8 hPa 0,0 l/m 0 min 0 min 10 W/m 32,2 km/h (5 Bft) 95,65 %
29.07.2021 06:14 15,5 C 15,0 C 13,9 C 90 % 1010,8 hPa 0,0 l/m 0 min 0 min 12 W/m 22,5 km/h (4 Bft) 97,87 %
29.07.2021 06:16 15,6 C 15,0 C 13,9 C 90 % 1010,9 hPa 0,0 l/m 0 min 0 min 12 W/m 22,5 km/h (4 Bft) 97,87 %
29.07.2021 06:18 15,5 C 15,0 C 13,9 C 90 % 1010,8 hPa 0,0 l/m 0 min 0 min 14 W/m 22,5 km/h (4 Bft) 97,87 %
29.07.2021 06:20 15,5 C 15,0 C 13,9 C 90 % 1010,9 hPa 0,0 l/m 0 min 0 min 14 W/m 19,3 km/h (3 Bft) 97,87 %
29.07.2021 06:22 15,5 C 15,0 C 13,9 C 89 % 1010,9 hPa 0,0 l/m 0 min 0 min 15 W/m 16,1 km/h (3 Bft) 95,74 %
29.07.2021 06:24 15,5 C 15,0 C 13,9 C 89 % 1010,9 hPa 0,0 l/m 0 min 0 min 17 W/m 22,5 km/h (4 Bft) 97,87 %
29.07.2021 06:26 15,6 C 15,0 C 13,9 C 89 % 1010,9 hPa 0,0 l/m 0 min 0 min 19 W/m 16,1 km/h (3 Bft) 95,65 %
29.07.2021 06:28 15,6 C 15,0 C 13,9 C 88 % 1011,0 hPa 0,0 l/m 0 min 0 min 23 W/m 16,1 km/h (3 Bft) 97,87 %
29.07.2021 06:30 15,6 C 15,0 C 13,9 C 88 % 1010,9 hPa 0,0 l/m 0 min 0 min 27 W/m 16,1 km/h (3 Bft) 97,87 %
29.07.2021 06:32 15,6 C 15,0 C 13,9 C 88 % 1011,0 hPa 0,0 l/m 0 min 0 min 30 W/m 22,5 km/h (4 Bft) 97,87 %
29.07.2021 06:34 15,6 C 15,0 C 14,5 C 88 % 1011,0 hPa 0,0 l/m 0 min 0 min 30 W/m 22,5 km/h (4 Bft) 95,74 %
29.07.2021 06:36 15,6 C 15,0 C 14,5 C 88 % 1011,1 hPa 0,0 l/m 0 min 0 min 30 W/m 25,7 km/h (4 Bft) 95,65 %
29.07.2021 06:38 15,6 C 15,0 C 14,5 C 87 % 1011,1 hPa 0,0 l/m 0 min 0 min 31 W/m 19,3 km/h (3 Bft) 97,87 %
29.07.2021 06:40 15,6 C 15,0 C 14,5 C 87 % 1011,1 hPa 0,0 l/m 0 min 0 min 34 W/m 22,5 km/h (4 Bft) 97,87 %
29.07.2021 06:42 15,6 C 15,0 C 14,5 C 87 % 1011,1 hPa 0,0 l/m 0 min 0 min 38 W/m 25,7 km/h (4 Bft) 97,87 %
29.07.2021 06:44 15,7 C 15,0 C 14,5 C 87 % 1011,0 hPa 0,0 l/m 0 min 0 min 40 W/m 22,5 km/h (4 Bft) 97,87 %
29.07.2021 06:46 15,7 C 15,0 C 14,5 C 87 % 1011,1 hPa 0,0 l/m 0 min 0 min 36 W/m 25,7 km/h (4 Bft) 97,87 %
29.07.2021 06:48 15,7 C 15,0 C 14,5 C 87 % 1011,1 hPa 0,0 l/m 0 min 0 min 33 W/m 22,5 km/h (4 Bft) 97,83 %
29.07.2021 06:50 15,8 C 15,0 C 14,5 C 87 % 1011,1 hPa 0,0 l/m 0 min 0 min 40 W/m 22,5 km/h (4 Bft) 97,87 %
29.07.2021 06:52 15,8 C 15,0 C 15,0 C 87 % 1011,1 hPa 0,0 l/m 0 min 0 min 44 W/m 32,2 km/h (5 Bft) 97,87 %
29.07.2021 06:54 15,8 C 15,0 C 15,0 C 87 % 1011,1 hPa 0,0 l/m 0 min 0 min 45 W/m 22,5 km/h (4 Bft) 95,74 %
29.07.2021 06:56 15,8 C 15,6 C 15,0 C 86 % 1011,2 hPa 0,0 l/m 0 min 0 min 48 W/m 19,3 km/h (3 Bft) 97,87 %
29.07.2021 06:58 15,8 C 15,0 C 15,0 C 87 % 1011,2 hPa 0,0 l/m 0 min 0 min 38 W/m 22,5 km/h (4 Bft) 100,00 %
29.07.2021 07:00 15,8 C 15,0 C 15,0 C 86 % 1011,1 hPa 0,0 l/m 0 min 0 min 39 W/m 22,5 km/h (4 Bft) 97,83 %
29.07.2021 07:02 15,8 C 15,0 C 15,0 C 86 % 1011,1 hPa 0,0 l/m 0 min 0 min 51 W/m 22,5 km/h (4 Bft) 97,92 %
29.07.2021 07:04 15,8 C 15,0 C 15,0 C 86 % 1011,2 hPa 0,0 l/m 0 min 0 min 56 W/m 35,4 km/h (5 Bft) 97,87 %
29.07.2021 07:06 15,8 C 15,0 C 15,0 C 86 % 1011,1 hPa 0,0 l/m 0 min 0 min 57 W/m 25,7 km/h (4 Bft) 97,87 %
29.07.2021 07:08 15,8 C 15,6 C 15,0 C 86 % 1011,1 hPa 0,0 l/m 0 min 0 min 58 W/m 32,2 km/h (5 Bft) 97,87 %
29.07.2021 07:10 15,8 C 15,6 C 15,0 C 86 % 1011,1 hPa 0,0 l/m 0 min 0 min 64 W/m 22,5 km/h (4 Bft) 97,87 %
29.07.2021 07:12 15,8 C 15,6 C 15,0 C 86 % 1011,2 hPa 0,0 l/m 0 min 0 min 67 W/m 19,3 km/h (3 Bft) 97,83 %
29.07.2021 07:14 15,8 C 15,6 C 15,0 C 86 % 1011,2 hPa 0,0 l/m 0 min 0 min 65 W/m 25,7 km/h (4 Bft) 95,74 %
29.07.2021 07:16 15,8 C 15,6 C 15,0 C 86 % 1011,2 hPa 0,0 l/m 0 min 0 min 61 W/m 16,1 km/h (3 Bft) 97,87 %
29.07.2021 07:18 15,8 C 15,6 C 15,0 C 86 % 1011,2 hPa 0,0 l/m 0 min 0 min 56 W/m 16,1 km/h (3 Bft) 97,87 %
29.07.2021 07:20 15,8 C 15,6 C 15,0 C 86 % 1011,1 hPa 0,0 l/m 0 min 0 min 51 W/m 22,5 km/h (4 Bft) 97,96 %
29.07.2021 07:22 15,8 C 15,0 C 15,0 C 86 % 1011,2 hPa 0,0 l/m 0 min 0 min 46 W/m 35,4 km/h (5 Bft) 97,87 %
29.07.2021 07:24 15,8 C 15,0 C 15,0 C 85 % 1011,2 hPa 0,0 l/m 0 min 0 min 42 W/m 25,7 km/h (4 Bft) 97,83 %
29.07.2021 07:26 15,8 C 15,0 C 15,0 C 85 % 1011,1 hPa 0,0 l/m 0 min 0 min 38 W/m 19,3 km/h (3 Bft) 97,87 %
29.07.2021 07:28 15,8 C 15,0 C 15,0 C 85 % 1011,2 hPa 0,0 l/m 0 min 0 min 35 W/m 19,3 km/h (3 Bft) 97,87 %
29.07.2021 07:30 15,8 C 15,0 C 15,0 C 86 % 1011,2 hPa 0,0 l/m 0 min 0 min 35 W/m 12,9 km/h (3 Bft) 91,49 %
29.07.2021 07:32 15,8 C 15,0 C 15,0 C 85 % 1011,2 hPa 0,0 l/m 0 min 0 min 35 W/m 29,0 km/h (5 Bft) 97,87 %
29.07.2021 07:34 15,8 C 15,0 C 15,0 C 85 % 1011,2 hPa 0,0 l/m 0 min 0 min 35 W/m 19,3 km/h (3 Bft) 97,83 %
29.07.2021 07:36 15,8 C 15,0 C 15,0 C 86 % 1011,3 hPa 0,0 l/m 0 min 0 min 35 W/m 19,3 km/h (3 Bft) 97,87 %
29.07.2021 07:38 15,8 C 15,0 C 15,0 C 86 % 1011,4 hPa 0,0 l/m 0 min 0 min 35 W/m 19,3 km/h (3 Bft) 97,87 %
29.07.2021 07:40 15,8 C 15,0 C 15,0 C 85 % 1011,4 hPa 0,0 l/m 0 min 0 min 37 W/m 51,5 km/h (7 Bft) 97,87 %
29.07.2021 07:42 15,8 C 15,6 C 15,0 C 85 % 1011,3 hPa 0,0 l/m 0 min 0 min 40 W/m 19,3 km/h (3 Bft) 97,87 %
29.07.2021 07:44 15,9 C 15,6 C 15,0 C 85 % 1011,3 hPa 0,0 l/m 0 min 0 min 42 W/m 19,3 km/h (3 Bft) 97,87 %
29.07.2021 07:46 15,9 C 15,6 C 15,0 C 85 % 1011,4 hPa 0,0 l/m 0 min 0 min 45 W/m 19,3 km/h (3 Bft) 95,65 %
29.07.2021 07:48 15,9 C 15,6 C 15,0 C 86 % 1011,3 hPa 0,0 l/m 0 min 0 min 50 W/m 32,2 km/h (5 Bft) 97,87 %
29.07.2021 07:50 15,9 C 15,6 C 15,0 C 85 % 1011,3 hPa 0,0 l/m 0 min 0 min 54 W/m 22,5 km/h (4 Bft) 100,00 %
29.07.2021 07:52 15,9 C 15,6 C 15,0 C 85 % 1011,3 hPa 0,0 l/m 0 min 0 min 61 W/m 29,0 km/h (5 Bft) 100,00 %
29.07.2021 07:54 15,9 C 15,6 C 15,0 C 85 % 1011,4 hPa 0,0 l/m 0 min 0 min 73 W/m 38,6 km/h (5 Bft) 100,00 %
29.07.2021 07:56 16,0 C 15,6 C 15,0 C 85 % 1011,4 hPa 0,0 l/m 0 min 0 min 78 W/m 32,2 km/h (5 Bft) 100,00 %
29.07.2021 07:58 16,0 C 15,6 C 15,0 C 85 % 1011,5 hPa 0,0 l/m 0 min 0 min 88 W/m 19,3 km/h (3 Bft) 97,87 %
29.07.2021 08:00 16,0 C 15,6 C 15,6 C 85 % 1011,5 hPa 0,0 l/m 0 min 0 min 93 W/m 25,7 km/h (4 Bft) 97,83 %
29.07.2021 08:02 16,0 C 15,6 C 15,6 C 85 % 1011,4 hPa 0,0 l/m 0 min 0 min 88 W/m 22,5 km/h (4 Bft) 97,87 %
29.07.2021 08:04 16,1 C 15,6 C 15,6 C 84 % 1011,5 hPa 0,0 l/m 0 min 0 min 76 W/m 22,5 km/h (4 Bft) 100,00 %
29.07.2021 08:06 16,1 C 15,6 C 15,6 C 84 % 1011,5 hPa 0,0 l/m 0 min 0 min 92 W/m 29,0 km/h (5 Bft) 100,00 %
29.07.2021 08:08 16,1 C 15,6 C 15,6 C 84 % 1011,4 hPa 0,0 l/m 0 min 0 min 126 W/m 22,5 km/h (4 Bft) 100,00 %
29.07.2021 08:10 16,1 C 15,6 C 15,6 C 84 % 1011,5 hPa 0,0 l/m 0 min 0 min 107 W/m 25,7 km/h (4 Bft) 100,00 %
29.07.2021 08:12 16,1 C 15,6 C 15,6 C 84 % 1011,5 hPa 0,0 l/m 2 min 0 min 162 W/m 32,2 km/h (5 Bft) 100,00 %
29.07.2021 08:14 16,1 C 15,6 C 15,6 C 84 % 1011,5 hPa 0,0 l/m 2 min 0 min 214 W/m 25,7 km/h (4 Bft) 100,00 %
29.07.2021 08:16 16,1 C 15,6 C 15,6 C 84 % 1011,5 hPa 0,0 l/m 2 min 0 min 221 W/m 16,1 km/h (3 Bft) 100,00 %
29.07.2021 08:18 16,1 C 15,6 C 15,6 C 84 % 1011,5 hPa 0,0 l/m 0 min 0 min 153 W/m 22,5 km/h (4 Bft) 100,00 %
29.07.2021 08:20 16,1 C 15,6 C 15,6 C 84 % 1011,5 hPa 0,0 l/m 2 min 0 min 171 W/m 32,2 km/h (5 Bft) 100,00 %
29.07.2021 08:22 16,1 C 16,1 C 15,6 C 84 % 1011,4 hPa 0,0 l/m 0 min 0 min 122 W/m 16,1 km/h (3 Bft) 97,87 %
29.07.2021 08:24 16,2 C 16,1 C 15,6 C 84 % 1011,5 hPa 0,0 l/m 0 min 0 min 157 W/m 29,0 km/h (5 Bft) 100,00 %
29.07.2021 08:26 16,2 C 16,1 C 15,6 C 84 % 1011,5 hPa 0,0 l/m 0 min 0 min 161 W/m 16,1 km/h (3 Bft) 100,00 %
29.07.2021 08:28 16,2 C 16,7 C 15,6 C 84 % 1011,5 hPa 0,0 l/m 2 min 0 min 284 W/m 29,0 km/h (5 Bft) 97,87 %
29.07.2021 08:30 16,3 C 17,2 C 15,6 C 84 % 1011,4 hPa 0,0 l/m 2 min 0 min 346 W/m 32,2 km/h (5 Bft) 97,87 %
29.07.2021 08:32 16,3 C 17,2 C 15,6 C 84 % 1011,5 hPa 0,0 l/m 2 min 0 min 359 W/m 32,2 km/h (5 Bft) 100,00 %
29.07.2021 08:34 16,4 C 17,8 C 15,6 C 83 % 1011,5 hPa 0,0 l/m 2 min 0 min 367 W/m 35,4 km/h (5 Bft) 100,00 %
29.07.2021 08:36 16,4 C 17,8 C 15,6 C 83 % 1011,4 hPa 0,0 l/m 2 min 0 min 367 W/m 16,1 km/h (3 Bft) 100,00 %
29.07.2021 08:38 16,4 C 18,3 C 15,6 C 83 % 1011,5 hPa 0,0 l/m 2 min 0 min 372 W/m 25,7 km/h (4 Bft) 100,00 %
29.07.2021 08:40 16,5 C 18,3 C 15,6 C 83 % 1011,6 hPa 0,0 l/m 2 min 0 min 357 W/m 32,2 km/h (5 Bft) 100,00 %
29.07.2021 08:42 16,5 C 18,3 C 15,6 C 82 % 1011,5 hPa 0,0 l/m 2 min 0 min 367 W/m 22,5 km/h (4 Bft) 100,00 %
29.07.2021 08:44 16,6 C 18,9 C 15,6 C 82 % 1011,6 hPa 0,0 l/m 2 min 0 min 407 W/m 29,0 km/h (5 Bft) 100,00 %
29.07.2021 08:46 16,6 C 18,9 C 15,6 C 81 % 1011,6 hPa 0,0 l/m 2 min 0 min 407 W/m 25,7 km/h (4 Bft) 100,00 %
29.07.2021 08:48 16,8 C 18,9 C 16,1 C 81 % 1011,5 hPa 0,0 l/m 2 min 0 min 421 W/m 22,5 km/h (4 Bft) 100,00 %
29.07.2021 08:50 16,8 C 18,9 C 16,1 C 81 % 1011,8 hPa 0,0 l/m 2 min 0 min 422 W/m 51,5 km/h (7 Bft) 100,00 %
29.07.2021 08:52 16,9 C 19,4 C 16,1 C 80 % 1011,6 hPa 0,0 l/m 2 min 0 min 426 W/m 25,7 km/h (4 Bft) 93,62 %
29.07.2021 08:54 16,9 C 19,4 C 16,1 C 80 % 1011,6 hPa 0,0 l/m 2 min 0 min 452 W/m 25,7 km/h (4 Bft) 100,00 %
29.07.2021 08:56 17,0 C 20,6 C 16,1 C 80 % 1011,7 hPa 0,0 l/m 2 min 0 min 456 W/m 16,1 km/h (3 Bft) 97,87 %
29.07.2021 08:58 17,1 C 20,0 C 16,1 C 81 % 1011,7 hPa 0,0 l/m 2 min 0 min 248 W/m 12,9 km/h (3 Bft) 100,00 %
29.07.2021 09:00 17,2 C 20,0 C 16,1 C 80 % 1011,8 hPa 0,0 l/m 0 min 0 min 163 W/m 12,9 km/h (3 Bft) 100,00 %
29.07.2021 09:02 17,3 C 20,0 C 16,7 C 80 % 1011,7 hPa 0,0 l/m 2 min 0 min 368 W/m 9,7 km/h (2 Bft) 100,00 %
29.07.2021 09:04 17,3 C 19,4 C 16,7 C 79 % 1011,8 hPa 0,0 l/m 2 min 0 min 533 W/m 22,5 km/h (4 Bft) 100,00 %
29.07.2021 09:06 17,3 C 18,9 C 16,7 C 79 % 1011,8 hPa 0,0 l/m 2 min 0 min 277 W/m 12,9 km/h (3 Bft) 97,87 %
29.07.2021 09:08 17,3 C 18,3 C 16,7 C 78 % 1011,8 hPa 0,0 l/m 2 min 0 min 293 W/m 12,9 km/h (3 Bft) 100,00 %
29.07.2021 09:10 17,3 C 18,3 C 16,7 C 78 % 1011,8 hPa 0,0 l/m 2 min 0 min 315 W/m 16,1 km/h (3 Bft) 100,00 %
29.07.2021 09:12 17,2 C 18,3 C 16,7 C 78 % 1011,9 hPa 0,0 l/m 0 min 0 min 179 W/m 22,5 km/h (4 Bft) 98,18 %
29.07.2021 09:14 17,2 C 18,9 C 16,7 C 78 % 1012,1 hPa 0,0 l/m 0 min 0 min 229 W/m 29,0 km/h (5 Bft) 97,87 %
29.07.2021 09:16 17,3 C 18,3 C 16,7 C 78 % 1011,9 hPa 0,0 l/m 2 min 0 min 272 W/m 25,7 km/h (4 Bft) 100,00 %
29.07.2021 09:18 17,3 C 17,8 C 16,7 C 78 % 1012,0 hPa 0,0 l/m 0 min 0 min 202 W/m 16,1 km/h (3 Bft) 100,00 %
29.07.2021 09:20 17,3 C 17,8 C 16,7 C 78 % 1012,0 hPa 0,0 l/m 0 min 0 min 239 W/m 16,1 km/h (3 Bft) 97,87 %
29.07.2021 09:22 17,3 C 17,8 C 16,7 C 78 % 1012,0 hPa 0,0 l/m 2 min 0 min 253 W/m 16,1 km/h (3 Bft) 95,65 %
29.07.2021 09:24 17,3 C 17,8 C 16,7 C 78 % 1012,0 hPa 0,0 l/m 0 min 0 min 213 W/m 12,9 km/h (3 Bft) 97,87 %
29.07.2021 09:26 17,2 C 17,2 C 16,1 C 78 % 1012,0 hPa 0,0 l/m 0 min 0 min 178 W/m 29,0 km/h (5 Bft) 97,87 %
29.07.2021 09:28 17,3 C 18,3 C 16,7 C 78 % 1012,0 hPa 0,0 l/m 0 min 0 min 227 W/m 19,3 km/h (3 Bft) 91,49 %
29.07.2021 09:30 17,3 C 18,3 C 16,7 C 78 % 1012,1 hPa 0,0 l/m 0 min 0 min 186 W/m 12,9 km/h (3 Bft) 95,74 %
29.07.2021 09:32 17,3 C 18,3 C 16,7 C 78 % 1012,2 hPa 0,0 l/m 0 min 0 min 158 W/m 16,1 km/h (3 Bft) 93,62 %
29.07.2021 09:34 17,4 C 18,9 C 17,3 C 78 % 1012,1 hPa 0,0 l/m 2 min 0 min 356 W/m 12,9 km/h (3 Bft) 95,65 %
29.07.2021 09:36 17,4 C 19,4 C 17,3 C 78 % 1012,1 hPa 0,0 l/m 2 min 0 min 448 W/m 22,5 km/h (4 Bft) 95,74 %
29.07.2021 09:38 17,4 C 18,9 C 17,3 C 77 % 1012,2 hPa 0,0 l/m 2 min 0 min 413 W/m 19,3 km/h (3 Bft) 93,75 %
29.07.2021 09:40 17,4 C 18,9 C 17,3 C 77 % 1012,2 hPa 0,0 l/m 0 min 0 min 145 W/m 25,7 km/h (4 Bft) 93,62 %
29.07.2021 09:42 17,4 C 18,9 C 17,3 C 78 % 1012,2 hPa 0,0 l/m 0 min 0 min 160 W/m 16,1 km/h (3 Bft) 93,62 %
29.07.2021 09:44 17,5 C 19,4 C 17,8 C 77 % 1012,1 hPa 0,0 l/m 2 min 0 min 415 W/m 16,1 km/h (3 Bft) 93,62 %
29.07.2021 09:46 17,6 C 20,0 C 18,4 C 77 % 1012,2 hPa 0,0 l/m 2 min 0 min 585 W/m 16,1 km/h (3 Bft) 93,48 %
29.07.2021 09:48 17,6 C 19,4 C 17,8 C 76 % 1012,2 hPa 0,0 l/m 2 min 0 min 585 W/m 22,5 km/h (4 Bft) 91,49 %
29.07.2021 09:50 17,6 C 19,4 C 17,8 C 76 % 1012,2 hPa 0,0 l/m 2 min 0 min 587 W/m 16,1 km/h (3 Bft) 93,62 %
29.07.2021 09:52 17,5 C 19,4 C 17,8 C 76 % 1012,2 hPa 0,0 l/m 2 min 0 min 593 W/m 19,3 km/h (3 Bft) 93,62 %
29.07.2021 09:54 17,6 C 20,0 C 18,4 C 76 % 1012,3 hPa 0,0 l/m 2 min 0 min 612 W/m 32,2 km/h (5 Bft) 93,62 %
29.07.2021 09:56 17,6 C 20,6 C 18,4 C 76 % 1012,1 hPa 0,0 l/m 2 min 0 min 602 W/m 22,5 km/h (4 Bft) 93,62 %
29.07.2021 09:58 17,8 C 20,6 C 17,8 C 76 % 1012,1 hPa 0,0 l/m 2 min 0 min 584 W/m 22,5 km/h (4 Bft) 93,48 %
29.07.2021 10:00 17,9 C 20,6 C 18,4 C 76 % 1012,2 hPa 0,0 l/m 2 min 0 min 646 W/m 29,0 km/h (5 Bft) 93,62 %
29.07.2021 10:02 17,9 C 20,6 C 18,4 C 75 % 1012,2 hPa 0,0 l/m 2 min 0 min 631 W/m 19,3 km/h (3 Bft) 93,62 %
29.07.2021 10:04 17,9 C 20,6 C 17,8 C 75 % 1012,2 hPa 0,0 l/m 2 min 0 min 686 W/m 25,7 km/h (4 Bft) 91,49 %
29.07.2021 10:06 18,0 C 20,6 C 17,8 C 75 % 1012,1 hPa 0,0 l/m 2 min 0 min 686 W/m 19,3 km/h (3 Bft) 91,49 %
29.07.2021 10:08 18,1 C 21,1 C 17,8 C 75 % 1012,1 hPa 0,0 l/m 2 min 0 min 704 W/m 38,6 km/h (5 Bft) 91,49 %
29.07.2021 10:10 18,1 C 21,1 C 17,8 C 74 % 1012,1 hPa 0,0 l/m 2 min 0 min 695 W/m 32,2 km/h (5 Bft) 91,30 %
29.07.2021 10:12 18,2 C 21,1 C 17,3 C 74 % 1012,0 hPa 0,0 l/m 2 min 0 min 700 W/m 22,5 km/h (4 Bft) 93,62 %
29.07.2021 10:14 18,3 C 20,6 C 17,3 C 74 % 1012,0 hPa 0,0 l/m 2 min 0 min 726 W/m 38,6 km/h (5 Bft) 93,62 %
29.07.2021 10:16 18,1 C 19,4 C 16,7 C 74 % 1012,0 hPa 0,0 l/m 2 min 0 min 738 W/m 29,0 km/h (5 Bft) 91,49 %
29.07.2021 10:18 18,1 C 18,9 C 16,7 C 74 % 1012,1 hPa 0,0 l/m 0 min 0 min 224 W/m 22,5 km/h (4 Bft) 93,62 %
29.07.2021 10:20 18,0 C 18,9 C 16,7 C 74 % 1012,1 hPa 0,0 l/m 0 min 0 min 204 W/m 29,0 km/h (5 Bft) 91,49 %
29.07.2021 10:22 18,0 C 19,4 C 16,7 C 75 % 1012,1 hPa 0,0 l/m 2 min 0 min 417 W/m 16,1 km/h (3 Bft) 93,48 %
29.07.2021 10:24 18,1 C 20,6 C 17,3 C 75 % 1012,1 hPa 0,0 l/m 2 min 0 min 747 W/m 16,1 km/h (3 Bft) 93,62 %
29.07.2021 10:26 18,3 C 21,1 C 17,3 C 75 % 1012,0 hPa 0,0 l/m 2 min 0 min 767 W/m 16,1 km/h (3 Bft) 95,74 %
29.07.2021 10:28 18,4 C 20,6 C 17,8 C 74 % 1012,0 hPa 0,0 l/m 2 min 0 min 802 W/m 16,1 km/h (3 Bft) 97,87 %
29.07.2021 10:30 18,5 C 21,1 C 17,8 C 74 % 1012,0 hPa 0,0 l/m 2 min 0 min 818 W/m 22,5 km/h (4 Bft) 95,74 %
29.07.2021 10:32 18,6 C 21,1 C 17,8 C 71 % 1012,0 hPa 0,0 l/m 2 min 0 min 760 W/m 29,0 km/h (5 Bft) 97,87 %
29.07.2021 10:34 18,7 C 20,6 C 17,8 C 72 % 1011,9 hPa 0,0 l/m 2 min 0 min 731 W/m 16,1 km/h (3 Bft) 97,87 %
29.07.2021 10:36 18,8 C 20,6 C 17,8 C 71 % 1012,0 hPa 0,0 l/m 2 min 0 min 769 W/m 22,5 km/h (4 Bft) 97,87 %
29.07.2021 10:38 18,8 C 20,0 C 18,4 C 71 % 1012,0 hPa 0,0 l/m 2 min 0 min 855 W/m 19,3 km/h (3 Bft) 97,22 %
29.07.2021 10:40 18,8 C 20,0 C 18,4 C 71 % 1012,0 hPa 0,0 l/m 2 min 0 min 830 W/m 16,1 km/h (3 Bft) 95,74 %
29.07.2021 10:42 18,9 C 20,0 C 18,9 C 71 % 1012,0 hPa 0,0 l/m 2 min 0 min 789 W/m 35,4 km/h (5 Bft) 97,87 %
29.07.2021 10:44 18,8 C 19,4 C 18,4 C 71 % 1012,0 hPa 0,0 l/m 2 min 0 min 585 W/m 19,3 km/h (3 Bft) 100,00 %
29.07.2021 10:46 18,8 C 18,9 C 18,4 C 71 % 1012,0 hPa 0,0 l/m 0 min 0 min 177 W/m 19,3 km/h (3 Bft) 100,00 %
29.07.2021 10:48 18,8 C 18,9 C 17,8 C 72 % 1012,1 hPa 0,0 l/m 0 min 0 min 186 W/m 16,1 km/h (3 Bft) 97,83 %
29.07.2021 10:50 18,8 C 19,4 C 18,9 C 72 % 1012,1 hPa 0,0 l/m 2 min 0 min 401 W/m 22,5 km/h (4 Bft) 97,87 %
29.07.2021 10:52 18,9 C 19,4 C 18,9 C 72 % 1012,1 hPa 0,0 l/m 2 min 0 min 838 W/m 16,1 km/h (3 Bft) 100,00 %
29.07.2021 10:54 18,9 C 19,4 C 19,5 C 71 % 1012,0 hPa 0,0 l/m 2 min 0 min 863 W/m 19,3 km/h (3 Bft) 100,00 %
29.07.2021 10:56 19,0 C 20,0 C 18,9 C 71 % 1012,0 hPa 0,0 l/m 2 min 0 min 879 W/m 16,1 km/h (3 Bft) 97,87 %
29.07.2021 10:58 19,1 C 20,6 C 20,0 C 71 % 1012,1 hPa 0,0 l/m 2 min 0 min 846 W/m 16,1 km/h (3 Bft) 97,87 %
29.07.2021 11:00 19,4 C 20,6 C 21,1 C 71 % 1012,1 hPa 0,0 l/m 2 min 0 min 823 W/m 16,1 km/h (3 Bft) 97,83 %
29.07.2021 11:02 19,5 C 20,6 C 20,6 C 69 % 1012,1 hPa 0,0 l/m 2 min 0 min 827 W/m 29,0 km/h (5 Bft) 97,87 %
29.07.2021 11:04 19,4 C 20,0 C 20,0 C 67 % 1012,0 hPa 0,0 l/m 2 min 0 min 689 W/m 22,5 km/h (4 Bft) 100,00 %
29.07.2021 11:06 19,4 C 20,0 C 20,0 C 69 % 1012,1 hPa 0,0 l/m 2 min 0 min 540 W/m 16,1 km/h (3 Bft) 100,00 %
29.07.2021 11:08 19,4 C 20,0 C 19,5 C 67 % 1012,1 hPa 0,0 l/m 2 min 0 min 545 W/m 16,1 km/h (3 Bft) 100,00 %
29.07.2021 11:10 19,3 C 19,4 C 18,4 C 68 % 1012,1 hPa 0,0 l/m 0 min 0 min 207 W/m 12,9 km/h (3 Bft) 100,00 %
29.07.2021 11:12 19,3 C 19,4 C 17,8 C 68 % 1012,1 hPa 0,0 l/m 0 min 0 min 202 W/m 25,7 km/h (4 Bft) 97,83 %
29.07.2021 11:14 19,0 C 18,9 C 17,3 C 66 % 1012,2 hPa 0,0 l/m 0 min 0 min 228 W/m 32,2 km/h (5 Bft) 100,00 %
29.07.2021 11:16 18,9 C 18,9 C 17,3 C 68 % 1012,2 hPa 0,0 l/m 0 min 0 min 167 W/m 29,0 km/h (5 Bft) 100,00 %
29.07.2021 11:18 18,8 C 18,9 C 17,3 C 68 % 1012,3 hPa 0,0 l/m 0 min 0 min 273 W/m 16,1 km/h (3 Bft) 100,00 %
29.07.2021 11:20 18,9 C 19,4 C 17,3 C 68 % 1012,2 hPa 0,0 l/m 2 min 0 min 844 W/m 22,5 km/h (4 Bft) 100,00 %
29.07.2021 11:22 19,0 C 20,0 C 17,3 C 67 % 1012,2 hPa 0,0 l/m 2 min 0 min 837 W/m 25,7 km/h (4 Bft) 100,00 %
29.07.2021 11:24 19,1 C 20,0 C 17,8 C 67 % 1012,2 hPa 0,0 l/m 2 min 0 min 838 W/m 16,1 km/h (3 Bft) 100,00 %
29.07.2021 11:26 19,3 C 20,0 C 17,3 C 68 % 1012,2 hPa 0,0 l/m 2 min 0 min 825 W/m 19,3 km/h (3 Bft) 100,00 %
29.07.2021 11:28 19,3 C 20,6 C 17,8 C 68 % 1012,2 hPa 0,0 l/m 2 min 0 min 853 W/m 32,2 km/h (5 Bft) 100,00 %
29.07.2021 11:30 19,4 C 20,0 C 17,8 C 67 % 1012,2 hPa 0,0 l/m 2 min 0 min 854 W/m 35,4 km/h (5 Bft) 100,00 %
29.07.2021 11:32 19,3 C 19,4 C 17,3 C 68 % 1012,3 hPa 0,0 l/m 2 min 0 min 549 W/m 29,0 km/h (5 Bft) 100,00 %
29.07.2021 11:34 19,2 C 18,9 C 16,7 C 68 % 1012,2 hPa 0,0 l/m 0 min 0 min 94 W/m 22,5 km/h (4 Bft) 100,00 %
29.07.2021 11:36 19,0 C 19,4 C 16,7 C 68 % 1012,2 hPa 0,0 l/m 0 min 0 min 287 W/m 19,3 km/h (3 Bft) 100,00 %
29.07.2021 11:38 19,0 C 20,0 C 17,3 C 69 % 1012,3 hPa 0,0 l/m 2 min 0 min 873 W/m 29,0 km/h (5 Bft) 100,00 %
29.07.2021 11:40 19,1 C 20,0 C 17,3 C 68 % 1012,1 hPa 0,0 l/m 2 min 0 min 900 W/m 22,5 km/h (4 Bft) 100,00 %
29.07.2021 11:42 19,2 C 20,0 C 17,3 C 68 % 1012,1 hPa 0,0 l/m 2 min 0 min 395 W/m 19,3 km/h (3 Bft) 100,00 %
29.07.2021 11:44 19,3 C 20,6 C 17,3 C 68 % 1012,2 hPa 0,0 l/m 2 min 0 min 776 W/m 16,1 km/h (3 Bft) 100,00 %
29.07.2021 11:46 19,4 C 21,1 C 17,8 C 68 % 1012,1 hPa 0,0 l/m 2 min 0 min 911 W/m 25,7 km/h (4 Bft) 100,00 %
29.07.2021 11:48 19,5 C 21,7 C 17,8 C 67 % 1012,0 hPa 0,0 l/m 2 min 0 min 910 W/m 22,5 km/h (4 Bft) 97,87 %
29.07.2021 11:50 19,8 C 21,7 C 18,4 C 65 % 1012,1 hPa 0,0 l/m 2 min 0 min 953 W/m 48,3 km/h (6 Bft) 100,00 %
29.07.2021 11:52 19,9 C 21,1 C 18,9 C 65 % 1012,2 hPa 0,0 l/m 2 min 0 min 940 W/m 38,6 km/h (5 Bft) 100,00 %
29.07.2021 11:54 19,9 C 21,1 C 18,9 C 66 % 1012,3 hPa 0,0 l/m 2 min 0 min 751 W/m 19,3 km/h (3 Bft) 97,87 %
29.07.2021 11:56 20,0 C 21,7 C 20,0 C 66 % 1012,2 hPa 0,0 l/m 2 min 0 min 522 W/m 22,5 km/h (4 Bft) 97,87 %
29.07.2021 11:58 20,1 C 21,7 C 20,0 C 65 % 1012,1 hPa 0,0 l/m 2 min 0 min 907 W/m 19,3 km/h (3 Bft) 97,87 %
29.07.2021 12:00 20,2 C 21,7 C 20,0 C 66 % 1012,3 hPa 0,0 l/m 2 min 0 min 908 W/m 29,0 km/h (5 Bft) 100,00 %
29.07.2021 12:02 20,4 C 22,8 C 20,6 C 67 % 1012,2 hPa 0,0 l/m 2 min 0 min 870 W/m 12,9 km/h (3 Bft) 100,00 %
29.07.2021 12:04 20,6 C 22,8 C 21,1 C 67 % 1012,2 hPa 0,0 l/m 2 min 0 min 869 W/m 25,7 km/h (4 Bft) 100,00 %
29.07.2021 12:08 20,5 C 22,2 C 22,8 C 64 % 1012,2 hPa 0,0 l/m 4 min 0 min 888 W/m 38,6 km/h (5 Bft) 100,00 %
29.07.2021 12:10 20,6 C 22,8 C 23,9 C 66 % 1012,4 hPa 0,0 l/m 2 min 0 min 906 W/m 12,9 km/h (3 Bft) 97,83 %
29.07.2021 12:12 20,8 C 22,8 C 25,0 C 64 % 1012,3 hPa 0,0 l/m 2 min 0 min 887 W/m 35,4 km/h (5 Bft) 97,87 %
29.07.2021 12:14 20,6 C 22,8 C 25,6 C 63 % 1012,3 hPa 0,0 l/m 2 min 0 min 901 W/m 48,3 km/h (6 Bft) 97,87 %
29.07.2021 12:16 20,6 C 22,2 C 25,6 C 63 % 1012,4 hPa 0,0 l/m 2 min 0 min 967 W/m 38,6 km/h (5 Bft) 95,74 %
29.07.2021 12:18 20,5 C 21,7 C 24,5 C 63 % 1012,3 hPa 0,0 l/m 2 min 0 min 939 W/m 29,0 km/h (5 Bft) 97,87 %
29.07.2021 12:20 20,4 C 22,2 C 26,1 C 63 % 1012,3 hPa 0,0 l/m 2 min 0 min 938 W/m 29,0 km/h (5 Bft) 97,87 %
29.07.2021 12:22 20,5 C 22,2 C 27,3 C 63 % 1012,4 hPa 0,0 l/m 2 min 0 min 921 W/m 19,3 km/h (3 Bft) 97,83 %
29.07.2021 12:24 20,5 C 22,2 C 27,3 C 62 % 1012,3 hPa 0,0 l/m 2 min 0 min 964 W/m 32,2 km/h (5 Bft) 95,74 %
29.07.2021 12:26 20,5 C 22,2 C 27,3 C 62 % 1012,5 hPa 0,0 l/m 2 min 0 min 1041 W/m 38,6 km/h (5 Bft) 97,87 %
29.07.2021 12:28 20,5 C 22,2 C 26,7 C 63 % 1012,3 hPa 0,0 l/m 2 min 0 min 1083 W/m 32,2 km/h (5 Bft) 93,62 %
29.07.2021 12:30 20,6 C 22,8 C 27,8 C 63 % 1012,3 hPa 0,0 l/m 2 min 0 min 1059 W/m 19,3 km/h (3 Bft) 97,87 %
29.07.2021 12:32 20,7 C 22,2 C 26,7 C 62 % 1012,1 hPa 0,0 l/m 2 min 0 min 1071 W/m 22,5 km/h (4 Bft) 97,87 %
29.07.2021 12:34 20,8 C 22,2 C 27,3 C 63 % 1012,2 hPa 0,0 l/m 2 min 0 min 1068 W/m 19,3 km/h (3 Bft) 97,83 %
29.07.2021 12:36 20,9 C 22,8 C 27,8 C 64 % 1012,2 hPa 0,0 l/m 2 min 0 min 1025 W/m 19,3 km/h (3 Bft) 95,74 %
29.07.2021 12:38 21,0 C 22,8 C 28,4 C 63 % 1012,3 hPa 0,0 l/m 2 min 0 min 971 W/m 25,7 km/h (4 Bft) 95,74 %
29.07.2021 12:40 21,1 C 22,8 C 28,4 C 61 % 1012,5 hPa 0,0 l/m 2 min 0 min 925 W/m 25,7 km/h (4 Bft) 97,87 %
29.07.2021 12:42 21,1 C 22,8 C 27,3 C 61 % 1012,2 hPa 0,0 l/m 2 min 0 min 929 W/m 19,3 km/h (3 Bft) 97,87 %
29.07.2021 12:44 21,2 C 22,2 C 26,1 C 60 % 1012,3 hPa 0,0 l/m 2 min 0 min 947 W/m 32,2 km/h (5 Bft) 95,74 %
29.07.2021 12:46 21,2 C 22,2 C 24,5 C 60 % 1012,3 hPa 0,0 l/m 2 min 0 min 947 W/m 29,0 km/h (5 Bft) 97,83 %
29.07.2021 12:48 21,0 C 22,2 C 23,9 C 61 % 1012,2 hPa 0,0 l/m 2 min 0 min 966 W/m 25,7 km/h (4 Bft) 95,74 %
29.07.2021 12:50 21,1 C 22,2 C 24,5 C 61 % 1012,2 hPa 0,0 l/m 2 min 0 min 993 W/m 22,5 km/h (4 Bft) 97,87 %
29.07.2021 12:52 21,1 C 22,2 C 24,5 C 61 % 1012,3 hPa 0,0 l/m 2 min 0 min 994 W/m 29,0 km/h (5 Bft) 97,87 %
29.07.2021 12:54 21,0 C 22,8 C 23,9 C 61 % 1012,3 hPa 0,0 l/m 2 min 0 min 991 W/m 29,0 km/h (5 Bft) 97,87 %
29.07.2021 12:56 21,2 C 22,8 C 23,4 C 61 % 1012,2 hPa 0,0 l/m 2 min 0 min 1005 W/m 22,5 km/h (4 Bft) 97,83 %
29.07.2021 12:58 21,2 C 21,7 C 21,7 C 61 % 1012,2 hPa 0,0 l/m 2 min 0 min 810 W/m 22,5 km/h (4 Bft) 100,00 %
29.07.2021 13:00 21,0 C 21,7 C 21,7 C 61 % 1012,2 hPa 0,0 l/m 0 min 0 min 251 W/m 12,9 km/h (3 Bft) 100,00 %
29.07.2021 13:02 21,0 C 22,2 C 21,7 C 62 % 1012,1 hPa 0,0 l/m 2 min 0 min 946 W/m 19,3 km/h (3 Bft) 96,23 %
29.07.2021 13:04 21,1 C 21,7 C 20,6 C 62 % 1012,3 hPa 0,0 l/m 2 min 0 min 977 W/m 29,0 km/h (5 Bft) 100,00 %
29.07.2021 13:06 21,1 C 22,2 C 20,0 C 62 % 1012,2 hPa 0,0 l/m 2 min 0 min 1033 W/m 16,1 km/h (3 Bft) 98,11 %
29.07.2021 13:08 21,3 C 22,8 C 20,6 C 61 % 1012,2 hPa 0,0 l/m 2 min 0 min 1012 W/m 29,0 km/h (5 Bft) 97,87 %
29.07.2021 13:10 21,3 C 22,2 C 20,0 C 61 % 1012,2 hPa 0,0 l/m 2 min 0 min 426 W/m 25,7 km/h (4 Bft) 97,87 %
29.07.2021 13:12 21,0 C 21,7 C 19,5 C 61 % 1012,2 hPa 0,0 l/m 0 min 0 min 241 W/m 19,3 km/h (3 Bft) 97,87 %
29.07.2021 13:14 21,0 C 21,1 C 19,5 C 62 % 1012,2 hPa 0,0 l/m 0 min 0 min 244 W/m 16,1 km/h (3 Bft) 97,87 %
29.07.2021 13:16 21,0 C 21,7 C 19,5 C 62 % 1012,2 hPa 0,0 l/m 2 min 0 min 439 W/m 19,3 km/h (3 Bft) 93,62 %
29.07.2021 13:18 21,0 C 21,7 C 19,5 C 61 % 1012,4 hPa 0,0 l/m 2 min 0 min 1003 W/m 29,0 km/h (5 Bft) 97,83 %
29.07.2021 13:20 21,0 C 22,2 C 19,5 C 60 % 1012,1 hPa 0,0 l/m 2 min 0 min 1018 W/m 38,6 km/h (5 Bft) 97,87 %
29.07.2021 13:22 21,1 C 23,3 C 19,5 C 61 % 1012,2 hPa 0,0 l/m 2 min 0 min 1018 W/m 19,3 km/h (3 Bft) 97,87 %
29.07.2021 13:24 21,3 C 23,3 C 20,0 C 60 % 1012,2 hPa 0,0 l/m 2 min 0 min 1009 W/m 29,0 km/h (5 Bft) 97,87 %
29.07.2021 13:26 21,5 C 23,3 C 20,0 C 61 % 1012,1 hPa 0,0 l/m 2 min 0 min 1050 W/m 19,3 km/h (3 Bft) 95,74 %
29.07.2021 13:28 21,5 C 22,8 C 20,0 C 59 % 1012,2 hPa 0,0 l/m 2 min 0 min 571 W/m 22,5 km/h (4 Bft) 95,74 %
29.07.2021 13:30 21,5 C 22,8 C 20,0 C 60 % 1012,3 hPa 0,0 l/m 2 min 0 min 1006 W/m 22,5 km/h (4 Bft) 95,65 %
29.07.2021 13:32 21,6 C 23,3 C 20,6 C 60 % 1012,2 hPa 0,0 l/m 2 min 0 min 1008 W/m 22,5 km/h (4 Bft) 93,62 %
29.07.2021 13:34 21,6 C 22,8 C 20,0 C 58 % 1012,2 hPa 0,0 l/m 2 min 0 min 995 W/m 22,5 km/h (4 Bft) 95,74 %
29.07.2021 13:36 21,6 C 23,3 C 20,6 C 59 % 1012,2 hPa 0,0 l/m 2 min 0 min 990 W/m 22,5 km/h (4 Bft) 95,74 %
29.07.2021 13:38 21,6 C 22,8 C 20,6 C 58 % 1012,3 hPa 0,0 l/m 2 min 0 min 980 W/m 16,1 km/h (3 Bft) 95,83 %
29.07.2021 13:40 21,6 C 23,3 C 20,6 C 60 % 1012,2 hPa 0,0 l/m 2 min 0 min 962 W/m 12,9 km/h (3 Bft) 95,74 %
29.07.2021 13:42 21,7 C 22,8 C 20,6 C 59 % 1012,4 hPa 0,0 l/m 2 min 0 min 1000 W/m 16,1 km/h (3 Bft) 95,65 %
29.07.2021 13:44 21,6 C 22,8 C 20,6 C 58 % 1012,1 hPa 0,0 l/m 2 min 0 min 1004 W/m 16,1 km/h (3 Bft) 91,49 %
29.07.2021 13:46 21,5 C 21,7 C 20,0 C 58 % 1012,2 hPa 0,0 l/m 0 min 0 min 369 W/m 19,3 km/h (3 Bft) 95,74 %
29.07.2021 13:48 21,4 C 21,7 C 19,5 C 58 % 1012,1 hPa 0,0 l/m 0 min 0 min 207 W/m 19,3 km/h (3 Bft) 95,74 %
29.07.2021 13:50 21,3 C 22,2 C 21,7 C 58 % 1012,2 hPa 0,0 l/m 2 min 0 min 448 W/m 19,3 km/h (3 Bft) 93,62 %
29.07.2021 13:52 21,4 C 22,2 C 21,1 C 59 % 1012,2 hPa 0,0 l/m 2 min 0 min 814 W/m 16,1 km/h (3 Bft) 95,74 %
29.07.2021 13:54 21,4 C 22,8 C 21,1 C 59 % 1012,5 hPa 0,0 l/m 0 min 0 min 271 W/m 25,7 km/h (4 Bft) 95,65 %
29.07.2021 13:56 21,4 C 22,8 C 21,7 C 58 % 1012,4 hPa 0,0 l/m 2 min 0 min 731 W/m 32,2 km/h (5 Bft) 95,74 %
29.07.2021 13:58 21,4 C 23,3 C 22,3 C 58 % 1012,3 hPa 0,0 l/m 2 min 0 min 971 W/m 25,7 km/h (4 Bft) 93,62 %
29.07.2021 14:00 21,5 C 23,3 C 21,7 C 58 % 1012,2 hPa 0,0 l/m 2 min 0 min 1001 W/m 25,7 km/h (4 Bft) 95,74 %
29.07.2021 14:02 21,7 C 23,9 C 21,7 C 59 % 1012,1 hPa 0,0 l/m 2 min 0 min 1093 W/m 22,5 km/h (4 Bft) 95,74 %
29.07.2021 14:04 21,8 C 24,4 C 21,7 C 59 % 1012,2 hPa 0,0 l/m 2 min 0 min 1077 W/m 29,0 km/h (5 Bft) 97,87 %
29.07.2021 14:06 21,9 C 23,9 C 21,1 C 57 % 1012,1 hPa 0,0 l/m 2 min 0 min 1035 W/m 32,2 km/h (5 Bft) 97,83 %
29.07.2021 14:08 22,1 C 24,4 C 21,1 C 57 % 1012,3 hPa 0,0 l/m 2 min 0 min 1034 W/m 25,7 km/h (4 Bft) 97,87 %
29.07.2021 14:10 22,0 C 23,3 C 20,6 C 55 % 1012,2 hPa 0,0 l/m 2 min 0 min 584 W/m 35,4 km/h (5 Bft) 95,74 %
29.07.2021 14:12 22,0 C 23,9 C 20,0 C 55 % 1012,3 hPa 0,0 l/m 2 min 0 min 939 W/m 22,5 km/h (4 Bft) 95,74 %
29.07.2021 14:14 22,0 C 23,9 C 20,0 C 55 % 1012,2 hPa 0,0 l/m 2 min 0 min 938 W/m 22,5 km/h (4 Bft) 97,87 %
29.07.2021 14:16 22,0 C 23,9 C 20,0 C 55 % 1012,2 hPa 0,0 l/m 2 min 0 min 939 W/m 22,5 km/h (4 Bft) 97,87 %
29.07.2021 14:18 22,1 C 23,9 C 20,0 C 55 % 1012,2 hPa 0,0 l/m 2 min 0 min 943 W/m 35,4 km/h (5 Bft) 97,83 %
29.07.2021 14:20 22,1 C 24,4 C 20,0 C 55 % 1012,1 hPa 0,0 l/m 2 min 0 min 952 W/m 38,6 km/h (5 Bft) 97,87 %
29.07.2021 14:22 22,3 C 25,0 C 20,0 C 57 % 1012,1 hPa 0,0 l/m 2 min 0 min 987 W/m 22,5 km/h (4 Bft) 97,87 %
29.07.2021 14:24 22,5 C 25,0 C 20,6 C 56 % 1012,3 hPa 0,0 l/m 2 min 0 min 1061 W/m 25,7 km/h (4 Bft) 97,87 %
29.07.2021 14:26 22,6 C 25,0 C 20,6 C 55 % 1012,2 hPa 0,0 l/m 2 min 0 min 1062 W/m 19,3 km/h (3 Bft) 97,87 %
29.07.2021 14:28 22,7 C 23,9 C 20,6 C 55 % 1012,2 hPa 0,0 l/m 0 min 0 min 380 W/m 25,7 km/h (4 Bft) 95,74 %
29.07.2021 14:30 22,7 C 24,4 C 20,6 C 55 % 1012,3 hPa 0,0 l/m 2 min 0 min 730 W/m 45,1 km/h (6 Bft) 97,83 %
29.07.2021 14:32 22,8 C 24,4 C 20,6 C 54 % 1012,3 hPa 0,0 l/m 2 min 0 min 1111 W/m 35,4 km/h (5 Bft) 97,92 %
29.07.2021 14:34 22,8 C 25,0 C 20,6 C 55 % 1012,2 hPa 0,0 l/m 2 min 0 min 1070 W/m 16,1 km/h (3 Bft) 97,87 %
29.07.2021 14:36 22,9 C 24,4 C 20,6 C 56 % 1012,2 hPa 0,0 l/m 2 min 0 min 1065 W/m 16,1 km/h (3 Bft) 95,74 %
29.07.2021 14:38 23,0 C 25,0 C 20,6 C 54 % 1012,1 hPa 0,0 l/m 2 min 0 min 1053 W/m 19,3 km/h (3 Bft) 97,92 %
29.07.2021 14:40 23,0 C 24,4 C 20,6 C 54 % 1012,1 hPa 0,0 l/m 2 min 0 min 1011 W/m 19,3 km/h (3 Bft) 97,83 %
29.07.2021 14:42 22,9 C 23,9 C 20,6 C 54 % 1012,1 hPa 0,0 l/m 0 min 0 min 376 W/m 22,5 km/h (4 Bft) 95,74 %
29.07.2021 14:44 23,0 C 25,0 C 20,6 C 55 % 1012,1 hPa 0,0 l/m 2 min 0 min 966 W/m 25,7 km/h (4 Bft) 95,74 %
29.07.2021 14:46 23,0 C 25,0 C 20,6 C 54 % 1012,0 hPa 0,0 l/m 2 min 0 min 956 W/m 19,3 km/h (3 Bft) 95,74 %
29.07.2021 14:48 23,0 C 25,0 C 20,6 C 55 % 1012,0 hPa 0,0 l/m 2 min 0 min 963 W/m 22,5 km/h (4 Bft) 95,74 %
29.07.2021 14:50 23,1 C 25,6 C 20,6 C 55 % 1012,0 hPa 0,0 l/m 2 min 0 min 988 W/m 25,7 km/h (4 Bft) 94,29 %
29.07.2021 14:52 23,1 C 24,4 C 20,6 C 53 % 1012,3 hPa 0,0 l/m 2 min 0 min 974 W/m 35,4 km/h (5 Bft) 98,28 %
29.07.2021 14:54 22,9 C 23,9 C 20,0 C 54 % 1012,2 hPa 0,0 l/m 0 min 0 min 264 W/m 25,7 km/h (4 Bft) 97,87 %
29.07.2021 14:56 22,8 C 23,9 C 20,0 C 54 % 1012,3 hPa 0,0 l/m 0 min 0 min 264 W/m 19,3 km/h (3 Bft) 97,87 %
29.07.2021 14:58 22,7 C 24,4 C 20,0 C 54 % 1012,2 hPa 0,0 l/m 2 min 0 min 556 W/m 16,1 km/h (3 Bft) 97,87 %
29.07.2021 15:00 22,8 C 25,0 C 20,0 C 54 % 1012,0 hPa 0,0 l/m 2 min 0 min 889 W/m 22,5 km/h (4 Bft) 95,74 %
29.07.2021 15:02 22,9 C 25,0 C 20,0 C 55 % 1012,1 hPa 0,0 l/m 2 min 0 min 893 W/m 19,3 km/h (3 Bft) 97,87 %
29.07.2021 15:04 23,1 C 25,6 C 20,6 C 54 % 1012,1 hPa 0,0 l/m 2 min 0 min 901 W/m 16,1 km/h (3 Bft) 97,83 %
29.07.2021 15:06 23,3 C 25,0 C 20,6 C 53 % 1012,1 hPa 0,0 l/m 2 min 0 min 922 W/m 32,2 km/h (5 Bft) 97,87 %
29.07.2021 15:08 23,1 C 23,3 C 20,0 C 52 % 1012,3 hPa 0,0 l/m 0 min 0 min 349 W/m 22,5 km/h (4 Bft) 97,87 %
29.07.2021 15:10 23,0 C 22,8 C 20,0 C 52 % 1012,2 hPa 0,0 l/m 0 min 0 min 194 W/m 19,3 km/h (3 Bft) 97,87 %
29.07.2021 15:12 22,8 C 22,2 C 20,0 C 53 % 1012,2 hPa 0,0 l/m 0 min 0 min 186 W/m 19,3 km/h (3 Bft) 93,62 %
29.07.2021 15:14 22,6 C 22,2 C 20,0 C 54 % 1012,2 hPa 0,0 l/m 0 min 0 min 158 W/m 16,1 km/h (3 Bft) 95,74 %
29.07.2021 15:16 22,5 C 22,2 C 19,5 C 54 % 1012,2 hPa 0,0 l/m 0 min 0 min 197 W/m 25,7 km/h (4 Bft) 97,83 %
29.07.2021 15:18 22,3 C 21,7 C 19,5 C 54 % 1012,1 hPa 0,0 l/m 0 min 0 min 206 W/m 25,7 km/h (4 Bft) 93,62 %
29.07.2021 15:20 22,1 C 22,2 C 19,5 C 55 % 1012,2 hPa 0,0 l/m 0 min 0 min 250 W/m 25,7 km/h (4 Bft) 97,87 %
29.07.2021 15:22 22,1 C 23,3 C 19,5 C 56 % 1012,2 hPa 0,0 l/m 0 min 0 min 302 W/m 12,9 km/h (3 Bft) 97,87 %
29.07.2021 15:24 22,3 C 24,4 C 20,0 C 56 % 1012,1 hPa 0,0 l/m 2 min 0 min 932 W/m 16,1 km/h (3 Bft) 97,87 %
29.07.2021 15:26 22,5 C 25,0 C 20,0 C 56 % 1012,0 hPa 0,0 l/m 2 min 0 min 870 W/m 16,1 km/h (3 Bft) 100,00 %
29.07.2021 15:28 22,8 C 25,6 C 20,0 C 55 % 1012,0 hPa 0,0 l/m 2 min 0 min 863 W/m 12,9 km/h (3 Bft) 100,00 %
29.07.2021 15:30 23,0 C 25,0 C 20,0 C 55 % 1012,1 hPa 0,0 l/m 2 min 0 min 884 W/m 25,7 km/h (4 Bft) 97,87 %
29.07.2021 15:32 23,0 C 24,4 C 20,0 C 54 % 1011,9 hPa 0,0 l/m 2 min 0 min 886 W/m 25,7 km/h (4 Bft) 100,00 %
29.07.2021 15:34 22,9 C 23,3 C 20,0 C 53 % 1011,8 hPa 0,0 l/m 0 min 0 min 206 W/m 22,5 km/h (4 Bft) 100,00 %
29.07.2021 15:36 22,9 C 23,9 C 19,5 C 54 % 1012,0 hPa 0,0 l/m 2 min 0 min 673 W/m 19,3 km/h (3 Bft) 100,00 %
29.07.2021 15:38 23,0 C 25,0 C 20,0 C 54 % 1012,0 hPa 0,0 l/m 2 min 0 min 881 W/m 19,3 km/h (3 Bft) 100,00 %
29.07.2021 15:40 23,1 C 25,6 C 20,0 C 55 % 1011,9 hPa 0,0 l/m 2 min 0 min 916 W/m 16,1 km/h (3 Bft) 100,00 %
29.07.2021 15:42 23,2 C 24,4 C 20,0 C 53 % 1011,9 hPa 0,0 l/m 2 min 0 min 921 W/m 22,5 km/h (4 Bft) 100,00 %
29.07.2021 15:44 23,1 C 25,0 C 20,0 C 54 % 1012,0 hPa 0,0 l/m 2 min 0 min 944 W/m 19,3 km/h (3 Bft) 100,00 %
29.07.2021 15:46 23,1 C 25,6 C 20,6 C 54 % 1012,0 hPa 0,0 l/m 2 min 0 min 897 W/m 22,5 km/h (4 Bft) 100,00 %
29.07.2021 15:48 23,0 C 25,0 C 20,0 C 51 % 1012,2 hPa 0,0 l/m 2 min 0 min 858 W/m 41,8 km/h (6 Bft) 100,00 %
29.07.2021 15:50 22,9 C 25,0 C 20,0 C 52 % 1012,0 hPa 0,0 l/m 2 min 0 min 837 W/m 32,2 km/h (5 Bft) 97,87 %
29.07.2021 15:52 22,9 C 25,6 C 20,0 C 52 % 1012,1 hPa 0,0 l/m 2 min 0 min 881 W/m 22,5 km/h (4 Bft) 100,00 %
29.07.2021 15:54 23,0 C 26,1 C 20,0 C 52 % 1011,9 hPa 0,0 l/m 2 min 0 min 861 W/m 22,5 km/h (4 Bft) 100,00 %
29.07.2021 15:56 23,2 C 25,6 C 20,6 C 52 % 1012,0 hPa 0,0 l/m 2 min 0 min 802 W/m 25,7 km/h (4 Bft) 100,00 %
29.07.2021 15:58 23,1 C 23,9 C 20,0 C 52 % 1012,0 hPa 0,0 l/m 2 min 0 min 486 W/m 22,5 km/h (4 Bft) 100,00 %
29.07.2021 16:00 23,0 C 23,3 C 20,0 C 52 % 1012,0 hPa 0,0 l/m 0 min 0 min 234 W/m 12,9 km/h (3 Bft) 100,00 %
29.07.2021 16:02 22,9 C 22,8 C 20,0 C 51 % 1011,9 hPa 0,0 l/m 0 min 0 min 241 W/m 22,5 km/h (4 Bft) 100,00 %
29.07.2021 16:04 22,8 C 22,2 C 20,0 C 51 % 1012,0 hPa 0,0 l/m 0 min 0 min 240 W/m 19,3 km/h (3 Bft) 97,87 %
29.07.2021 16:06 22,6 C 22,2 C 20,0 C 52 % 1012,0 hPa 0,0 l/m 0 min 0 min 245 W/m 12,9 km/h (3 Bft) 97,87 %
29.07.2021 16:08 22,5 C 22,2 C 19,5 C 51 % 1012,0 hPa 0,0 l/m 0 min 0 min 245 W/m 12,9 km/h (3 Bft) 100,00 %
29.07.2021 16:10 22,5 C 22,2 C 19,5 C 51 % 1012,1 hPa 0,0 l/m 0 min 0 min 216 W/m 19,3 km/h (3 Bft) 100,00 %
29.07.2021 16:12 22,3 C 21,7 C 19,5 C 52 % 1012,0 hPa 0,0 l/m 0 min 0 min 201 W/m 16,1 km/h (3 Bft) 100,00 %
29.07.2021 16:14 22,3 C 21,7 C 19,5 C 53 % 1012,0 hPa 0,0 l/m 0 min 0 min 215 W/m 9,7 km/h (2 Bft) 100,00 %
29.07.2021 16:16 22,2 C 22,2 C 19,5 C 54 % 1012,1 hPa 0,0 l/m 0 min 0 min 269 W/m 16,1 km/h (3 Bft) 97,87 %
29.07.2021 16:18 22,2 C 23,3 C 19,5 C 54 % 1012,1 hPa 0,0 l/m 2 min 0 min 367 W/m 19,3 km/h (3 Bft) 100,00 %
29.07.2021 16:20 22,3 C 25,0 C 20,0 C 55 % 1012,0 hPa 0,0 l/m 2 min 0 min 666 W/m 12,9 km/h (3 Bft) 100,00 %
29.07.2021 16:22 22,5 C 25,6 C 20,0 C 55 % 1012,0 hPa 0,0 l/m 2 min 0 min 956 W/m 22,5 km/h (4 Bft) 100,00 %
29.07.2021 16:24 22,6 C 23,9 C 20,0 C 55 % 1012,0 hPa 0,0 l/m 2 min 0 min 434 W/m 19,3 km/h (3 Bft) 97,87 %
29.07.2021 16:26 22,5 C 23,3 C 20,0 C 55 % 1012,0 hPa 0,0 l/m 0 min 0 min 260 W/m 25,7 km/h (4 Bft) 97,87 %
29.07.2021 16:28 22,4 C 22,8 C 20,0 C 56 % 1012,0 hPa 0,0 l/m 0 min 0 min 246 W/m 19,3 km/h (3 Bft) 97,87 %
29.07.2021 16:30 22,3 C 22,2 C 19,5 C 55 % 1012,0 hPa 0,0 l/m 0 min 0 min 193 W/m 12,9 km/h (3 Bft) 97,83 %
29.07.2021 16:32 22,3 C 22,2 C 19,5 C 56 % 1012,0 hPa 0,0 l/m 0 min 0 min 163 W/m 9,7 km/h (2 Bft) 97,87 %
29.07.2021 16:34 22,1 C 22,2 C 19,5 C 56 % 1012,0 hPa 0,0 l/m 0 min 0 min 180 W/m 12,9 km/h (3 Bft) 95,74 %
29.07.2021 16:36 22,1 C 22,8 C 19,5 C 56 % 1012,0 hPa 0,0 l/m 0 min 0 min 304 W/m 12,9 km/h (3 Bft) 95,74 %
29.07.2021 16:38 22,1 C 23,3 C 19,5 C 56 % 1012,0 hPa 0,0 l/m 2 min 0 min 452 W/m 19,3 km/h (3 Bft) 98,28 %
29.07.2021 16:40 22,2 C 23,3 C 19,5 C 57 % 1012,0 hPa 0,0 l/m 2 min 0 min 381 W/m 19,3 km/h (3 Bft) 94,44 %
29.07.2021 16:42 22,3 C 22,8 C 19,5 C 57 % 1012,1 hPa 0,0 l/m 0 min 0 min 269 W/m 22,5 km/h (4 Bft) 97,83 %
29.07.2021 16:44 22,3 C 23,3 C 19,5 C 57 % 1012,0 hPa 0,0 l/m 0 min 0 min 254 W/m 12,9 km/h (3 Bft) 97,87 %
29.07.2021 16:46 22,3 C 22,8 C 19,5 C 56 % 1012,0 hPa 0,0 l/m 0 min 0 min 252 W/m 19,3 km/h (3 Bft) 95,74 %
29.07.2021 16:48 22,2 C 22,2 C 19,5 C 56 % 1012,1 hPa 0,0 l/m 0 min 0 min 215 W/m 22,5 km/h (4 Bft) 97,87 %
29.07.2021 16:50 22,1 C 22,2 C 19,5 C 55 % 1012,0 hPa 0,0 l/m 0 min 0 min 174 W/m 25,7 km/h (4 Bft) 95,74 %
29.07.2021 16:52 22,0 C 22,2 C 19,5 C 56 % 1012,0 hPa 0,0 l/m 0 min 0 min 181 W/m 22,5 km/h (4 Bft) 97,87 %
29.07.2021 16:54 22,0 C 23,9 C 19,5 C 57 % 1012,1 hPa 0,0 l/m 0 min 0 min 214 W/m 16,1 km/h (3 Bft) 95,65 %
29.07.2021 16:56 22,0 C 24,4 C 19,5 C 56 % 1012,0 hPa 0,0 l/m 0 min 0 min 214 W/m 22,5 km/h (4 Bft) 97,87 %
29.07.2021 16:58 22,1 C 23,3 C 19,5 C 58 % 1011,9 hPa 0,0 l/m 0 min 0 min 186 W/m 16,1 km/h (3 Bft) 95,74 %
29.07.2021 17:00 22,1 C 22,8 C 19,5 C 57 % 1012,0 hPa 0,0 l/m 0 min 0 min 133 W/m 19,3 km/h (3 Bft) 97,87 %
29.07.2021 17:02 22,1 C 22,2 C 19,5 C 56 % 1012,0 hPa 0,0 l/m 0 min 0 min 110 W/m 22,5 km/h (4 Bft) 95,74 %
29.07.2021 17:04 21,9 C 21,7 C 18,9 C 56 % 1012,0 hPa 0,0 l/m 0 min 0 min 106 W/m 32,2 km/h (5 Bft) 95,74 %
29.07.2021 17:06 21,8 C 21,1 C 18,9 C 58 % 1012,0 hPa 0,0 l/m 0 min 0 min 131 W/m 29,0 km/h (5 Bft) 95,65 %
29.07.2021 17:08 21,6 C 22,8 C 18,9 C 58 % 1012,1 hPa 0,0 l/m 0 min 0 min 146 W/m 19,3 km/h (3 Bft) 96,61 %
29.07.2021 17:10 21,6 C 24,4 C 19,5 C 59 % 1012,1 hPa 0,0 l/m 2 min 0 min 326 W/m 25,7 km/h (4 Bft) 94,29 %
29.07.2021 17:12 21,8 C 25,0 C 19,5 C 60 % 1012,0 hPa 0,0 l/m 2 min 0 min 788 W/m 19,3 km/h (3 Bft) 95,74 %
29.07.2021 17:14 22,0 C 25,0 C 20,0 C 58 % 1012,0 hPa 0,0 l/m 2 min 0 min 665 W/m 22,5 km/h (4 Bft) 95,74 %
29.07.2021 17:16 22,1 C 26,7 C 20,0 C 59 % 1011,9 hPa 0,0 l/m 2 min 0 min 671 W/m 16,1 km/h (3 Bft) 93,75 %
29.07.2021 17:18 22,4 C 27,2 C 20,0 C 59 % 1012,0 hPa 0,0 l/m 2 min 0 min 681 W/m 16,1 km/h (3 Bft) 93,48 %
29.07.2021 17:20 22,6 C 26,1 C 20,0 C 58 % 1012,0 hPa 0,0 l/m 2 min 0 min 572 W/m 12,9 km/h (3 Bft) 91,49 %
29.07.2021 17:22 22,6 C 25,6 C 20,0 C 57 % 1012,0 hPa 0,0 l/m 0 min 0 min 162 W/m 16,1 km/h (3 Bft) 91,49 %
29.07.2021 17:24 22,6 C 26,1 C 20,0 C 57 % 1012,0 hPa 0,0 l/m 2 min 0 min 287 W/m 19,3 km/h (3 Bft) 95,74 %
29.07.2021 17:26 22,7 C 26,1 C 20,0 C 57 % 1012,1 hPa 0,0 l/m 2 min 0 min 549 W/m 12,9 km/h (3 Bft) 93,62 %
29.07.2021 17:28 22,8 C 26,7 C 20,0 C 58 % 1012,0 hPa 0,0 l/m 2 min 0 min 632 W/m 32,2 km/h (5 Bft) 95,74 %
29.07.2021 17:30 22,8 C 27,2 C 20,6 C 57 % 1012,0 hPa 0,0 l/m 2 min 0 min 654 W/m 16,1 km/h (3 Bft) 95,65 %
29.07.2021 17:32 22,9 C 26,7 C 20,6 C 57 % 1012,1 hPa 0,0 l/m 2 min 0 min 640 W/m 29,0 km/h (5 Bft) 95,74 %
29.07.2021 17:34 22,9 C 25,0 C 20,0 C 56 % 1012,0 hPa 0,0 l/m 2 min 0 min 640 W/m 29,0 km/h (5 Bft) 95,74 %
29.07.2021 17:36 22,7 C 25,6 C 20,0 C 56 % 1012,1 hPa 0,0 l/m 2 min 0 min 641 W/m 32,2 km/h (5 Bft) 93,62 %
29.07.2021 17:38 22,6 C 26,1 C 20,0 C 57 % 1011,9 hPa 0,0 l/m 2 min 0 min 661 W/m 16,1 km/h (3 Bft) 95,74 %
29.07.2021 17:40 22,6 C 25,0 C 20,0 C 56 % 1012,1 hPa 0,0 l/m 2 min 0 min 646 W/m 22,5 km/h (4 Bft) 93,62 %
29.07.2021 17:42 22,6 C 25,0 C 20,0 C 57 % 1012,0 hPa 0,0 l/m 2 min 0 min 442 W/m 29,0 km/h (5 Bft) 95,65 %
29.07.2021 17:44 22,5 C 23,9 C 20,0 C 56 % 1011,9 hPa 0,0 l/m 0 min 0 min 164 W/m 25,7 km/h (4 Bft) 95,74 %
29.07.2021 17:46 22,5 C 25,0 C 20,0 C 57 % 1011,9 hPa 0,0 l/m 2 min 0 min 475 W/m 25,7 km/h (4 Bft) 95,74 %
29.07.2021 17:48 22,5 C 24,4 C 20,0 C 57 % 1012,0 hPa 0,0 l/m 2 min 0 min 504 W/m 25,7 km/h (4 Bft) 95,83 %
29.07.2021 17:50 22,4 C 24,4 C 20,0 C 57 % 1012,0 hPa 0,0 l/m 2 min 0 min 461 W/m 25,7 km/h (4 Bft) 93,62 %
29.07.2021 17:52 22,3 C 23,9 C 19,5 C 57 % 1011,9 hPa 0,0 l/m 2 min 0 min 461 W/m 25,7 km/h (4 Bft) 95,74 %
29.07.2021 17:54 22,3 C 23,9 C 19,5 C 57 % 1011,9 hPa 0,0 l/m 2 min 0 min 532 W/m 41,8 km/h (6 Bft) 95,65 %
29.07.2021 17:56 22,1 C 23,9 C 19,5 C 57 % 1012,0 hPa 0,0 l/m 2 min 0 min 538 W/m 22,5 km/h (4 Bft) 95,74 %
29.07.2021 17:58 22,1 C 25,0 C 19,5 C 58 % 1011,9 hPa 0,0 l/m 2 min 0 min 530 W/m 22,5 km/h (4 Bft) 95,74 %
29.07.2021 18:00 22,2 C 25,0 C 20,0 C 57 % 1012,0 hPa 0,0 l/m 2 min 0 min 512 W/m 22,5 km/h (4 Bft) 100,00 %
29.07.2021 18:02 22,1 C 25,0 C 19,5 C 56 % 1011,9 hPa 0,0 l/m 2 min 0 min 506 W/m 16,1 km/h (3 Bft) 95,74 %
29.07.2021 18:04 22,3 C 25,6 C 20,0 C 57 % 1012,0 hPa 0,0 l/m 2 min 0 min 500 W/m 22,5 km/h (4 Bft) 100,00 %
29.07.2021 18:08 22,3 C 26,1 C 20,0 C 56 % 1011,8 hPa 0,0 l/m 4 min 0 min 486 W/m 25,7 km/h (4 Bft) 100,00 %
29.07.2021 18:10 22,3 C 25,6 C 20,0 C 56 % 1011,9 hPa 0,0 l/m 2 min 0 min 476 W/m 45,1 km/h (6 Bft) 100,00 %
29.07.2021 18:12 22,3 C 26,1 C 20,0 C 56 % 1011,9 hPa 0,0 l/m 2 min 0 min 468 W/m 19,3 km/h (3 Bft) 100,00 %
29.07.2021 18:14 22,3 C 26,1 C 20,0 C 56 % 1011,8 hPa 0,0 l/m 2 min 0 min 464 W/m 35,4 km/h (5 Bft) 100,00 %
29.07.2021 18:16 22,4 C 26,1 C 20,0 C 56 % 1011,8 hPa 0,0 l/m 2 min 0 min 458 W/m 16,1 km/h (3 Bft) 100,00 %
29.07.2021 18:18 22,5 C 26,7 C 20,0 C 56 % 1011,8 hPa 0,0 l/m 2 min 0 min 448 W/m 12,9 km/h (3 Bft) 100,00 %
29.07.2021 18:20 22,5 C 27,2 C 20,0 C 56 % 1011,8 hPa 0,0 l/m 2 min 0 min 442 W/m 12,9 km/h (3 Bft) 100,00 %
29.07.2021 18:22 22,6 C 26,7 C 20,0 C 55 % 1011,9 hPa 0,0 l/m 2 min 0 min 440 W/m 22,5 km/h (4 Bft) 100,00 %
29.07.2021 18:24 22,7 C 26,7 C 20,6 C 53 % 1011,9 hPa 0,0 l/m 2 min 0 min 444 W/m 22,5 km/h (4 Bft) 100,00 %
29.07.2021 18:26 22,7 C 26,7 C 20,6 C 52 % 1011,8 hPa 0,0 l/m 2 min 0 min 444 W/m 19,3 km/h (3 Bft) 100,00 %
29.07.2021 18:28 22,8 C 27,2 C 20,6 C 53 % 1011,8 hPa 0,0 l/m 2 min 0 min 428 W/m 16,1 km/h (3 Bft) 100,00 %
29.07.2021 18:30 22,8 C 27,2 C 20,6 C 54 % 1011,9 hPa 0,0 l/m 2 min 0 min 429 W/m 16,1 km/h (3 Bft) 100,00 %
29.07.2021 18:32 22,8 C 26,1 C 20,6 C 53 % 1011,8 hPa 0,0 l/m 2 min 0 min 424 W/m 19,3 km/h (3 Bft) 100,00 %
29.07.2021 18:34 22,7 C 25,0 C 20,0 C 53 % 1011,9 hPa 0,0 l/m 2 min 0 min 424 W/m 19,3 km/h (3 Bft) 100,00 %
29.07.2021 18:36 22,6 C 25,0 C 20,0 C 52 % 1012,0 hPa 0,0 l/m 2 min 0 min 392 W/m 19,3 km/h (3 Bft) 100,00 %
29.07.2021 18:38 22,6 C 25,6 C 20,0 C 51 % 1011,9 hPa 0,0 l/m 2 min 0 min 387 W/m 22,5 km/h (4 Bft) 100,00 %
29.07.2021 18:40 22,5 C 26,1 C 20,0 C 52 % 1011,9 hPa 0,0 l/m 2 min 0 min 383 W/m 12,9 km/h (3 Bft) 100,00 %
29.07.2021 18:42 22,5 C 26,1 C 20,0 C 52 % 1011,9 hPa 0,0 l/m 2 min 0 min 375 W/m 19,3 km/h (3 Bft) 97,83 %
29.07.2021 18:44 22,5 C 25,0 C 20,0 C 52 % 1012,1 hPa 0,0 l/m 2 min 0 min 360 W/m 25,7 km/h (4 Bft) 100,00 %
29.07.2021 18:46 22,5 C 25,6 C 20,0 C 52 % 1011,8 hPa 0,0 l/m 2 min 0 min 355 W/m 19,3 km/h (3 Bft) 100,00 %
29.07.2021 18:48 22,5 C 25,6 C 20,0 C 52 % 1011,9 hPa 0,0 l/m 2 min 0 min 351 W/m 19,3 km/h (3 Bft) 100,00 %
29.07.2021 18:50 22,5 C 26,1 C 20,0 C 54 % 1011,9 hPa 0,0 l/m 2 min 0 min 338 W/m 12,9 km/h (3 Bft) 97,87 %
29.07.2021 18:52 22,5 C 26,1 C 20,0 C 53 % 1011,9 hPa 0,0 l/m 2 min 0 min 342 W/m 16,1 km/h (3 Bft) 97,87 %
29.07.2021 18:54 22,5 C 26,1 C 20,0 C 53 % 1011,8 hPa 0,0 l/m 2 min 0 min 323 W/m 16,1 km/h (3 Bft) 100,00 %
29.07.2021 18:56 22,5 C 25,6 C 19,5 C 53 % 1012,0 hPa 0,0 l/m 2 min 0 min 333 W/m 29,0 km/h (5 Bft) 100,00 %
29.07.2021 18:58 22,5 C 25,0 C 19,5 C 53 % 1012,0 hPa 0,0 l/m 2 min 0 min 326 W/m 25,7 km/h (4 Bft) 100,00 %
29.07.2021 19:00 22,4 C 25,0 C 19,5 C 52 % 1012,0 hPa 0,0 l/m 2 min 0 min 323 W/m 41,8 km/h (6 Bft) 100,00 %
29.07.2021 19:02 22,3 C 25,0 C 19,5 C 52 % 1011,9 hPa 0,0 l/m 2 min 0 min 319 W/m 29,0 km/h (5 Bft) 97,96 %
29.07.2021 19:04 22,3 C 24,4 C 18,9 C 53 % 1011,9 hPa 0,0 l/m 2 min 0 min 320 W/m 19,3 km/h (3 Bft) 100,00 %
29.07.2021 19:06 22,2 C 24,4 C 18,9 C 53 % 1012,0 hPa 0,0 l/m 2 min 0 min 285 W/m 19,3 km/h (3 Bft) 100,00 %
29.07.2021 19:08 22,1 C 24,4 C 18,9 C 54 % 1011,9 hPa 0,0 l/m 2 min 0 min 268 W/m 19,3 km/h (3 Bft) 100,00 %
29.07.2021 19:10 22,0 C 24,4 C 18,9 C 54 % 1011,9 hPa 0,0 l/m 2 min 0 min 296 W/m 19,3 km/h (3 Bft) 97,87 %
29.07.2021 19:12 22,0 C 23,3 C 18,9 C 54 % 1011,9 hPa 0,0 l/m 2 min 0 min 223 W/m 22,5 km/h (4 Bft) 100,00 %
29.07.2021 19:14 21,9 C 22,8 C 18,9 C 54 % 1011,9 hPa 0,0 l/m 2 min 0 min 171 W/m 22,5 km/h (4 Bft) 100,00 %
29.07.2021 19:16 21,8 C 22,8 C 18,4 C 54 % 1011,9 hPa 0,0 l/m 2 min 0 min 230 W/m 32,2 km/h (5 Bft) 100,00 %
29.07.2021 19:18 21,8 C 22,2 C 18,4 C 55 % 1011,9 hPa 0,0 l/m 2 min 0 min 228 W/m 12,9 km/h (3 Bft) 100,00 %
29.07.2021 19:20 21,8 C 21,7 C 18,4 C 55 % 1011,9 hPa 0,0 l/m 2 min 0 min 237 W/m 16,1 km/h (3 Bft) 100,00 %
29.07.2021 19:22 21,6 C 21,7 C 18,4 C 55 % 1011,9 hPa 0,0 l/m 2 min 0 min 257 W/m 19,3 km/h (3 Bft) 100,00 %
29.07.2021 19:24 21,6 C 21,7 C 18,4 C 56 % 1011,9 hPa 0,0 l/m 2 min 0 min 210 W/m 12,9 km/h (3 Bft) 100,00 %
29.07.2021 19:26 21,6 C 21,1 C 18,4 C 56 % 1011,9 hPa 0,0 l/m 2 min 0 min 149 W/m 6,4 km/h (2 Bft) 100,00 %
29.07.2021 19:28 21,6 C 21,1 C 18,4 C 57 % 1011,9 hPa 0,0 l/m 0 min 0 min 127 W/m 6,4 km/h (2 Bft) 100,00 %
29.07.2021 19:30 21,6 C 21,1 C 18,4 C 56 % 1011,9 hPa 0,0 l/m 0 min 0 min 122 W/m 16,1 km/h (3 Bft) 97,87 %
29.07.2021 19:32 21,5 C 21,1 C 18,4 C 56 % 1012,0 hPa 0,0 l/m 2 min 0 min 139 W/m 19,3 km/h (3 Bft) 97,87 %
29.07.2021 19:34 21,5 C 21,1 C 18,4 C 57 % 1011,9 hPa 0,0 l/m 0 min 0 min 128 W/m 9,7 km/h (2 Bft) 97,87 %
29.07.2021 19:36 21,5 C 20,6 C 18,4 C 57 % 1011,8 hPa 0,0 l/m 0 min 0 min 87 W/m 16,1 km/h (3 Bft) 97,87 %
29.07.2021 19:38 21,4 C 20,6 C 18,4 C 57 % 1011,9 hPa 0,0 l/m 0 min 0 min 77 W/m 29,0 km/h (5 Bft) 95,74 %
29.07.2021 19:40 21,3 C 20,6 C 17,8 C 57 % 1011,9 hPa 0,0 l/m 0 min 0 min 74 W/m 22,5 km/h (4 Bft) 97,83 %
29.07.2021 19:42 21,1 C 20,6 C 17,8 C 57 % 1011,9 hPa 0,0 l/m 0 min 0 min 69 W/m 12,9 km/h (3 Bft) 97,87 %
29.07.2021 19:44 21,1 C 20,6 C 17,8 C 58 % 1011,9 hPa 0,0 l/m 0 min 0 min 61 W/m 16,1 km/h (3 Bft) 97,87 %
29.07.2021 19:46 21,1 C 20,6 C 17,8 C 58 % 1011,9 hPa 0,0 l/m 0 min 0 min 59 W/m 12,9 km/h (3 Bft) 97,87 %
29.07.2021 19:48 21,0 C 20,6 C 17,8 C 59 % 1011,9 hPa 0,0 l/m 0 min 0 min 56 W/m 6,4 km/h (2 Bft) 95,74 %
29.07.2021 19:50 21,0 C 20,0 C 17,8 C 59 % 1011,9 hPa 0,0 l/m 0 min 0 min 52 W/m 12,9 km/h (3 Bft) 95,74 %
29.07.2021 19:52 20,9 C 20,0 C 17,8 C 59 % 1011,9 hPa 0,0 l/m 0 min 0 min 47 W/m 12,9 km/h (3 Bft) 95,65 %
29.07.2021 19:54 20,9 C 20,0 C 17,8 C 60 % 1011,8 hPa 0,0 l/m 0 min 0 min 46 W/m 6,4 km/h (2 Bft) 95,74 %
29.07.2021 19:56 20,8 C 20,0 C 17,3 C 60 % 1011,9 hPa 0,0 l/m 0 min 0 min 47 W/m 12,9 km/h (3 Bft) 95,74 %
29.07.2021 19:58 20,8 C 20,0 C 17,3 C 60 % 1011,9 hPa 0,0 l/m 0 min 0 min 50 W/m 6,4 km/h (2 Bft) 91,49 %
29.07.2021 20:00 20,8 C 20,0 C 17,3 C 61 % 1011,9 hPa 0,0 l/m 0 min 0 min 54 W/m 6,4 km/h (2 Bft) 93,62 %
29.07.2021 20:02 20,6 C 20,0 C 17,3 C 61 % 1011,9 hPa 0,0 l/m 0 min 0 min 56 W/m 9,7 km/h (2 Bft) 95,74 %
29.07.2021 20:04 20,6 C 20,0 C 17,3 C 61 % 1012,0 hPa 0,0 l/m 0 min 0 min 58 W/m 12,9 km/h (3 Bft) 93,48 %
29.07.2021 20:06 20,6 C 20,0 C 17,3 C 61 % 1012,0 hPa 0,0 l/m 0 min 0 min 55 W/m 9,7 km/h (2 Bft) 89,36 %
29.07.2021 20:08 20,5 C 20,0 C 17,3 C 62 % 1012,0 hPa 0,0 l/m 0 min 0 min 53 W/m 9,7 km/h (2 Bft) 95,74 %
29.07.2021 20:10 20,5 C 19,4 C 17,3 C 62 % 1012,0 hPa 0,0 l/m 0 min 0 min 52 W/m 9,7 km/h (2 Bft) 93,62 %
29.07.2021 20:12 20,5 C 19,4 C 17,3 C 62 % 1012,0 hPa 0,0 l/m 0 min 0 min 52 W/m 6,4 km/h (2 Bft) 93,62 %
29.07.2021 20:14 20,4 C 19,4 C 17,3 C 62 % 1012,1 hPa 0,0 l/m 0 min 0 min 53 W/m 16,1 km/h (3 Bft) 95,74 %
29.07.2021 20:16 20,4 C 19,4 C 17,3 C 62 % 1012,0 hPa 0,0 l/m 0 min 0 min 54 W/m 16,1 km/h (3 Bft) 93,62 %
29.07.2021 20:18 20,4 C 19,4 C 17,3 C 62 % 1012,0 hPa 0,0 l/m 0 min 0 min 56 W/m 6,4 km/h (2 Bft) 93,62 %
29.07.2021 20:20 20,4 C 19,4 C 17,3 C 62 % 1012,0 hPa 0,0 l/m 0 min 0 min 58 W/m 6,4 km/h (2 Bft) 93,62 %
29.07.2021 20:22 20,3 C 19,4 C 17,3 C 62 % 1012,0 hPa 0,0 l/m 0 min 0 min 59 W/m 12,9 km/h (3 Bft) 93,62 %
29.07.2021 20:24 20,3 C 19,4 C 17,3 C 62 % 1012,0 hPa 0,0 l/m 0 min 0 min 55 W/m 6,4 km/h (2 Bft) 91,49 %
29.07.2021 20:26 20,3 C 19,4 C 17,3 C 62 % 1012,0 hPa 0,0 l/m 0 min 0 min 52 W/m 12,9 km/h (3 Bft) 93,62 %
29.07.2021 20:28 20,2 C 19,4 C 17,3 C 63 % 1011,9 hPa 0,0 l/m 0 min 0 min 52 W/m 9,7 km/h (2 Bft) 93,48 %
29.07.2021 20:30 20,2 C 19,4 C 17,3 C 63 % 1011,9 hPa 0,0 l/m 0 min 0 min 54 W/m 6,4 km/h (2 Bft) 95,74 %
29.07.2021 20:32 20,2 C 19,4 C 17,3 C 63 % 1011,9 hPa 0,0 l/m 0 min 0 min 55 W/m 9,7 km/h (2 Bft) 91,49 %
29.07.2021 20:34 20,2 C 19,4 C 17,3 C 63 % 1011,9 hPa 0,0 l/m 2 min 0 min 56 W/m 3,2 km/h (1 Bft) 97,87 %
29.07.2021 20:36 20,1 C 19,4 C 17,3 C 64 % 1011,9 hPa 0,0 l/m 2 min 0 min 54 W/m 3,2 km/h (1 Bft) 93,62 %
29.07.2021 20:38 20,1 C 19,4 C 17,3 C 63 % 1012,0 hPa 0,0 l/m 0 min 0 min 48 W/m 12,9 km/h (3 Bft) 97,83 %
29.07.2021 20:40 20,1 C 19,4 C 17,3 C 64 % 1012,0 hPa 0,0 l/m 0 min 0 min 41 W/m 6,4 km/h (2 Bft) 95,74 %
29.07.2021 20:42 20,1 C 19,4 C 16,7 C 64 % 1012,0 hPa 0,0 l/m 0 min 0 min 38 W/m 6,4 km/h (2 Bft) 95,74 %
29.07.2021 20:44 20,1 C 19,4 C 16,7 C 64 % 1011,9 hPa 0,0 l/m 0 min 0 min 37 W/m 6,4 km/h (2 Bft) 97,87 %
29.07.2021 20:46 20,1 C 19,4 C 16,7 C 65 % 1012,0 hPa 0,0 l/m 0 min 0 min 35 W/m 6,4 km/h (2 Bft) 97,87 %
29.07.2021 20:48 20,0 C 18,9 C 16,7 C 65 % 1012,0 hPa 0,0 l/m 0 min 0 min 33 W/m 6,4 km/h (2 Bft) 95,74 %
29.07.2021 20:50 20,0 C 18,9 C 16,7 C 65 % 1012,0 hPa 0,0 l/m 0 min 0 min 32 W/m 9,7 km/h (2 Bft) 93,48 %
29.07.2021 20:52 20,0 C 18,9 C 16,7 C 65 % 1012,0 hPa 0,0 l/m 2 min 0 min 34 W/m 6,4 km/h (2 Bft) 97,87 %
29.07.2021 20:54 19,9 C 18,9 C 16,7 C 65 % 1012,0 hPa 0,0 l/m 2 min 0 min 37 W/m 6,4 km/h (2 Bft) 95,74 %
29.07.2021 20:56 19,9 C 18,9 C 16,7 C 65 % 1012,0 hPa 0,0 l/m 2 min 0 min 40 W/m 6,4 km/h (2 Bft) 95,74 %
29.07.2021 20:58 19,9 C 18,9 C 16,7 C 65 % 1012,0 hPa 0,0 l/m 2 min 0 min 40 W/m 3,2 km/h (1 Bft) 97,87 %
29.07.2021 21:00 19,9 C 18,9 C 16,7 C 65 % 1012,1 hPa 0,0 l/m 2 min 0 min 38 W/m 6,4 km/h (2 Bft) 97,87 %
29.07.2021 21:02 19,9 C 18,9 C 16,7 C 65 % 1012,0 hPa 0,0 l/m 2 min 0 min 36 W/m 6,4 km/h (2 Bft) 97,83 %
29.07.2021 21:04 19,8 C 18,9 C 16,7 C 65 % 1012,0 hPa 0,0 l/m 2 min 0 min 30 W/m 3,2 km/h (1 Bft) 100,00 %
29.07.2021 21:06 19,8 C 18,9 C 16,7 C 66 % 1012,0 hPa 0,0 l/m 2 min 0 min 21 W/m 3,2 km/h (1 Bft) 100,00 %
29.07.2021 21:08 19,8 C 18,9 C 16,7 C 66 % 1012,0 hPa 0,0 l/m 0 min 0 min 15 W/m 6,4 km/h (2 Bft) 100,00 %
29.07.2021 21:10 19,8 C 18,9 C 16,1 C 66 % 1012,0 hPa 0,0 l/m 0 min 0 min 13 W/m 3,2 km/h (1 Bft) 100,00 %
29.07.2021 21:12 19,7 C 18,9 C 16,1 C 66 % 1012,0 hPa 0,0 l/m 0 min 0 min 11 W/m 3,2 km/h (1 Bft) 100,00 %
29.07.2021 21:14 19,6 C 18,3 C 16,1 C 66 % 1012,0 hPa 0,0 l/m 0 min 0 min 11 W/m 3,2 km/h (1 Bft) 100,00 %
29.07.2021 21:16 19,6 C 18,3 C 16,1 C 67 % 1012,0 hPa 0,0 l/m 0 min 0 min 11 W/m 3,2 km/h (1 Bft) 100,00 %
29.07.2021 21:18 19,5 C 18,3 C 16,1 C 67 % 1012,1 hPa 0,0 l/m 0 min 0 min 10 W/m 6,4 km/h (2 Bft) 100,00 %
29.07.2021 21:20 19,5 C 18,3 C 16,1 C 67 % 1012,0 hPa 0,0 l/m 0 min 0 min 8 W/m 3,2 km/h (1 Bft) 100,00 %
29.07.2021 21:22 19,5 C 18,3 C 16,1 C 67 % 1012,0 hPa 0,0 l/m 0 min 0 min 6 W/m 3,2 km/h (1 Bft) 97,87 %
29.07.2021 21:24 19,4 C 18,3 C 16,1 C 67 % 1012,0 hPa 0,0 l/m 0 min 0 min 5 W/m 3,2 km/h (1 Bft) 100,00 %
29.07.2021 21:26 19,4 C 18,3 C 16,1 C 68 % 1012,1 hPa 0,0 l/m 0 min 0 min 0 W/m 3,2 km/h (1 Bft) 100,00 %
29.07.2021 21:28 19,3 C 18,3 C 16,1 C 68 % 1012,1 hPa 0,0 l/m 0 min 0 min 0 W/m 3,2 km/h (1 Bft) 100,00 %
29.07.2021 21:30 19,3 C 18,3 C 16,1 C 68 % 1012,1 hPa 0,0 l/m 0 min 0 min 0 W/m 3,2 km/h (1 Bft) 100,00 %
29.07.2021 21:32 19,3 C 18,3 C 15,6 C 68 % 1012,1 hPa 0,0 l/m 0 min 0 min 0 W/m 3,2 km/h (1 Bft) 100,00 %
29.07.2021 21:34 19,2 C 17,8 C 15,6 C 68 % 1012,1 hPa 0,0 l/m 0 min 0 min 0 W/m 6,4 km/h (2 Bft) 100,00 %
29.07.2021 21:36 19,2 C 18,3 C 15,6 C 68 % 1012,2 hPa 0,0 l/m 0 min 0 min 0 W/m 3,2 km/h (1 Bft) 97,92 %
29.07.2021 21:38 19,1 C 17,8 C 15,6 C 69 % 1012,2 hPa 0,0 l/m 0 min 0 min 0 W/m 3,2 km/h (1 Bft) 100,00 %
29.07.2021 21:40 19,1 C 17,8 C 15,6 C 68 % 1012,2 hPa 0,0 l/m 0 min 0 min 0 W/m 6,4 km/h (2 Bft) 97,87 %
29.07.2021 21:42 19,0 C 17,8 C 15,6 C 68 % 1012,2 hPa 0,0 l/m 0 min 0 min 0 W/m 3,2 km/h (1 Bft) 100,00 %
29.07.2021 21:44 19,0 C 17,8 C 15,6 C 68 % 1012,2 hPa 0,0 l/m 0 min 0 min 0 W/m 3,2 km/h (1 Bft) 100,00 %
29.07.2021 21:46 19,0 C 17,8 C 15,6 C 68 % 1012,2 hPa 0,0 l/m 0 min 0 min 0 W/m 9,7 km/h (2 Bft) 100,00 %
29.07.2021 21:48 19,0 C 17,8 C 15,6 C 68 % 1012,2 hPa 0,0 l/m 0 min 0 min 0 W/m 6,4 km/h (2 Bft) 100,00 %
29.07.2021 21:50 19,0 C 17,8 C 15,6 C 68 % 1012,2 hPa 0,0 l/m 0 min 0 min 0 W/m 3,2 km/h (1 Bft) 100,00 %
29.07.2021 21:52 18,9 C 17,8 C 15,6 C 68 % 1012,2 hPa 0,0 l/m 0 min 0 min 0 W/m 3,2 km/h (1 Bft) 100,00 %
29.07.2021 21:54 18,9 C 17,8 C 15,6 C 68 % 1012,2 hPa 0,0 l/m 0 min 0 min 0 W/m 3,2 km/h (1 Bft) 100,00 %
29.07.2021 21:56 18,9 C 17,8 C 15,6 C 68 % 1012,2 hPa 0,0 l/m 0 min 0 min 0 W/m 6,4 km/h (2 Bft) 100,00 %
29.07.2021 21:58 18,9 C 17,8 C 15,6 C 69 % 1012,3 hPa 0,0 l/m 0 min 0 min 0 W/m 6,4 km/h (2 Bft) 97,87 %
29.07.2021 22:00 18,8 C 17,8 C 15,6 C 69 % 1012,2 hPa 0,0 l/m 0 min 0 min 0 W/m 9,7 km/h (2 Bft) 100,00 %
29.07.2021 22:02 18,8 C 17,8 C 15,6 C 69 % 1012,3 hPa 0,0 l/m 0 min 0 min 0 W/m 0,0 km/h (0 Bft) 100,00 %
29.07.2021 22:04 18,8 C 17,8 C 15,6 C 69 % 1012,2 hPa 0,0 l/m 0 min 0 min 0 W/m 3,2 km/h (1 Bft) 100,00 %
29.07.2021 22:06 18,8 C 17,8 C 15,6 C 69 % 1012,2 hPa 0,0 l/m 0 min 0 min 0 W/m 3,2 km/h (1 Bft) 100,00 %
29.07.2021 22:08 18,7 C 17,8 C 15,6 C 69 % 1012,2 hPa 0,0 l/m 0 min 0 min 0 W/m 3,2 km/h (1 Bft) 100,00 %
29.07.2021 22:10 18,7 C 17,2 C 15,6 C 69 % 1012,2 hPa 0,0 l/m 0 min 0 min 0 W/m 6,4 km/h (2 Bft) 100,00 %
29.07.2021 22:12 18,6 C 17,2 C 15,6 C 70 % 1012,2 hPa 0,0 l/m 0 min 0 min 0 W/m 3,2 km/h (1 Bft) 97,87 %
29.07.2021 22:14 18,6 C 17,2 C 15,6 C 70 % 1012,2 hPa 0,0 l/m 0 min 0 min 0 W/m 9,7 km/h (2 Bft) 100,00 %
29.07.2021 22:16 18,6 C 17,2 C 15,6 C 70 % 1012,2 hPa 0,0 l/m 0 min 0 min 0 W/m 3,2 km/h (1 Bft) 100,00 %
29.07.2021 22:18 18,5 C 17,2 C 15,6 C 69 % 1012,2 hPa 0,0 l/m 0 min 0 min 0 W/m 3,2 km/h (1 Bft) 100,00 %
29.07.2021 22:20 18,5 C 17,2 C 15,0 C 69 % 1012,2 hPa 0,0 l/m 0 min 0 min 0 W/m 6,4 km/h (2 Bft) 100,00 %
29.07.2021 22:22 18,5 C 17,2 C 15,0 C 70 % 1012,1 hPa 0,0 l/m 0 min 0 min 0 W/m 6,4 km/h (2 Bft) 100,00 %
29.07.2021 22:24 18,5 C 17,2 C 15,0 C 70 % 1012,2 hPa 0,0 l/m 0 min 0 min 0 W/m 6,4 km/h (2 Bft) 100,00 %
29.07.2021 22:26 18,4 C 17,2 C 15,0 C 70 % 1012,1 hPa 0,0 l/m 0 min 0 min 0 W/m 6,4 km/h (2 Bft) 100,00 %
29.07.2021 22:28 18,4 C 17,2 C 15,0 C 70 % 1012,1 hPa 0,0 l/m 0 min 0 min 0 W/m 6,4 km/h (2 Bft) 100,00 %
29.07.2021 22:30 18,4 C 17,2 C 15,0 C 70 % 1012,1 hPa 0,0 l/m 0 min 0 min 0 W/m 3,2 km/h (1 Bft) 100,00 %
29.07.2021 22:32 18,3 C 17,2 C 15,0 C 71 % 1012,1 hPa 0,0 l/m 0 min 0 min 0 W/m 6,4 km/h (2 Bft) 100,00 %
29.07.2021 22:34 18,3 C 17,2 C 15,0 C 71 % 1012,1 hPa 0,0 l/m 0 min 0 min 0 W/m 9,7 km/h (2 Bft) 100,00 %
29.07.2021 22:36 18,3 C 17,2 C 15,0 C 71 % 1012,1 hPa 0,0 l/m 0 min 0 min 0 W/m 0,0 km/h (0 Bft) 97,87 %
29.07.2021 22:38 18,3 C 17,2 C 15,0 C 71 % 1012,1 hPa 0,0 l/m 0 min 0 min 0 W/m 3,2 km/h (1 Bft) 95,65 %
29.07.2021 22:40 18,2 C 17,2 C 15,0 C 71 % 1012,1 hPa 0,0 l/m 0 min 0 min 0 W/m 6,4 km/h (2 Bft) 95,74 %
29.07.2021 22:42 18,1 C 17,2 C 15,0 C 71 % 1012,1 hPa 0,0 l/m 0 min 0 min 0 W/m 3,2 km/h (1 Bft) 97,87 %
29.07.2021 22:44 18,1 C 17,2 C 15,0 C 71 % 1012,1 hPa 0,0 l/m 0 min 0 min 0 W/m 6,4 km/h (2 Bft) 97,87 %
29.07.2021 22:46 18,1 C 17,2 C 15,0 C 71 % 1012,1 hPa 0,0 l/m 0 min 0 min 0 W/m 3,2 km/h (1 Bft) 95,74 %
29.07.2021 22:48 18,1 C 16,7 C 15,0 C 72 % 1012,0 hPa 0,0 l/m 0 min 0 min 0 W/m 6,4 km/h (2 Bft) 97,83 %
29.07.2021 22:50 18,0 C 16,7 C 15,0 C 72 % 1012,1 hPa 0,0 l/m 0 min 0 min 0 W/m 6,4 km/h (2 Bft) 95,74 %
29.07.2021 22:52 18,0 C 16,7 C 15,0 C 72 % 1012,1 hPa 0,0 l/m 0 min 0 min 0 W/m 6,4 km/h (2 Bft) 95,74 %
29.07.2021 22:54 18,0 C 16,7 C 15,0 C 72 % 1012,0 hPa 0,0 l/m 0 min 0 min 0 W/m 6,4 km/h (2 Bft) 97,87 %
29.07.2021 22:56 18,0 C 16,7 C 14,5 C 72 % 1012,0 hPa 0,0 l/m 0 min 0 min 0 W/m 3,2 km/h (1 Bft) 97,87 %
29.07.2021 22:58 17,9 C 16,7 C 14,5 C 72 % 1012,0 hPa 0,0 l/m 0 min 0 min 0 W/m 6,4 km/h (2 Bft) 95,74 %
29.07.2021 23:00 17,9 C 16,7 C 14,5 C 72 % 1012,0 hPa 0,0 l/m 0 min 0 min 0 W/m 6,4 km/h (2 Bft) 95,65 %
29.07.2021 23:02 17,9 C 16,7 C 14,5 C 72 % 1012,0 hPa 0,0 l/m 0 min 0 min 0 W/m 9,7 km/h (2 Bft) 95,74 %
29.07.2021 23:04 17,8 C 16,7 C 14,5 C 72 % 1012,0 hPa 0,0 l/m 0 min 0 min 0 W/m 3,2 km/h (1 Bft) 93,62 %
29.07.2021 23:06 17,8 C 16,7 C 14,5 C 73 % 1012,0 hPa 0,0 l/m 0 min 0 min 0 W/m 3,2 km/h (1 Bft) 95,74 %
29.07.2021 23:08 17,8 C 16,7 C 14,5 C 73 % 1012,0 hPa 0,0 l/m 0 min 0 min 0 W/m 6,4 km/h (2 Bft) 93,62 %
29.07.2021 23:10 17,8 C 16,7 C 14,5 C 73 % 1011,9 hPa 0,0 l/m 0 min 0 min 0 W/m 3,2 km/h (1 Bft) 95,74 %
29.07.2021 23:12 17,8 C 16,7 C 14,5 C 73 % 1011,9 hPa 0,0 l/m 0 min 0 min 0 W/m 6,4 km/h (2 Bft) 95,65 %
29.07.2021 23:14 17,7 C 16,7 C 14,5 C 73 % 1011,9 hPa 0,0 l/m 0 min 0 min 0 W/m 9,7 km/h (2 Bft) 97,87 %
29.07.2021 23:16 17,6 C 16,7 C 14,5 C 73 % 1011,9 hPa 0,0 l/m 0 min 0 min 0 W/m 6,4 km/h (2 Bft) 95,74 %
29.07.2021 23:18 17,6 C 16,7 C 14,5 C 73 % 1012,0 hPa 0,0 l/m 0 min 0 min 0 W/m 3,2 km/h (1 Bft) 95,74 %
29.07.2021 23:20 17,6 C 16,7 C 14,5 C 73 % 1011,9 hPa 0,0 l/m 0 min 0 min 0 W/m 3,2 km/h (1 Bft) 95,83 %
29.07.2021 23:22 17,6 C 16,7 C 14,5 C 73 % 1011,9 hPa 0,0 l/m 0 min 0 min 0 W/m 3,2 km/h (1 Bft) 93,62 %
29.07.2021 23:24 17,5 C 16,7 C 14,5 C 73 % 1011,9 hPa 0,0 l/m 0 min 0 min 0 W/m 6,4 km/h (2 Bft) 91,49 %
29.07.2021 23:26 17,5 C 16,7 C 14,5 C 74 % 1011,9 hPa 0,0 l/m 0 min 0 min 0 W/m 3,2 km/h (1 Bft) 89,36 %
29.07.2021 23:28 17,5 C 16,7 C 14,5 C 74 % 1011,9 hPa 0,0 l/m 0 min 0 min 0 W/m 6,4 km/h (2 Bft) 91,49 %
29.07.2021 23:30 17,5 C 16,7 C 14,5 C 74 % 1011,8 hPa 0,0 l/m 0 min 0 min 0 W/m 3,2 km/h (1 Bft) 93,62 %
29.07.2021 23:32 17,4 C 16,7 C 14,5 C 74 % 1011,9 hPa 0,0 l/m 0 min 0 min 0 W/m 3,2 km/h (1 Bft) 95,74 %
29.07.2021 23:34 17,4 C 16,7 C 14,5 C 74 % 1011,9 hPa 0,0 l/m 0 min 0 min 0 W/m 3,2 km/h (1 Bft) 93,62 %
29.07.2021 23:36 17,4 C 16,7 C 14,5 C 74 % 1011,9 hPa 0,0 l/m 0 min 0 min 0 W/m 3,2 km/h (1 Bft) 93,48 %
29.07.2021 23:38 17,4 C 16,1 C 14,5 C 74 % 1011,9 hPa 0,0 l/m 0 min 0 min 0 W/m 6,4 km/h (2 Bft) 95,74 %
29.07.2021 23:40 17,4 C 16,1 C 14,5 C 74 % 1011,9 hPa 0,0 l/m 0 min 0 min 0 W/m 3,2 km/h (1 Bft) 95,74 %
29.07.2021 23:42 17,3 C 16,1 C 14,5 C 74 % 1011,9 hPa 0,0 l/m 0 min 0 min 0 W/m 3,2 km/h (1 Bft) 97,87 %
29.07.2021 23:44 17,3 C 16,1 C 14,5 C 74 % 1011,8 hPa 0,0 l/m 0 min 0 min 0 W/m 3,2 km/h (1 Bft) 95,74 %
29.07.2021 23:46 17,3 C 16,1 C 14,5 C 74 % 1011,9 hPa 0,0 l/m 0 min 0 min 0 W/m 3,2 km/h (1 Bft) 97,87 %
29.07.2021 23:48 17,3 C 16,1 C 14,5 C 74 % 1011,9 hPa 0,0 l/m 0 min 0 min 0 W/m 6,4 km/h (2 Bft) 97,83 %
29.07.2021 23:50 17,2 C 16,1 C 13,9 C 74 % 1011,9 hPa 0,0 l/m 0 min 0 min 0 W/m 6,4 km/h (2 Bft) 97,87 %
29.07.2021 23:52 17,2 C 16,1 C 13,9 C 74 % 1011,9 hPa 0,0 l/m 0 min 0 min 0 W/m 6,4 km/h (2 Bft) 97,87 %
29.07.2021 23:54 17,1 C 16,1 C 13,9 C 75 % 1011,8 hPa 0,0 l/m 0 min 0 min 0 W/m 6,4 km/h (2 Bft) 97,87 %
29.07.2021 23:56 17,1 C 16,1 C 13,9 C 75 % 1011,8 hPa 0,0 l/m 0 min 0 min 0 W/m 6,4 km/h (2 Bft) 97,87 %
29.07.2021 23:58 17,1 C 16,1 C 13,9 C 75 % 1011,8 hPa 0,0 l/m 0 min 0 min 0 W/m 3,2 km/h (1 Bft) 97,87 %
_ Min-Zeit 05:02 03:28 01:18 15:48 03:32 - - - - 22:02 04:26
Minimum _ 15,0 C 14,4 C 13,4 C 51 % 1010,4 hPa - - - - 0,0 km/h (0 Bft) 55,56 %
_ Max-Zeit 15:06 17:18 12:38 03:24 12:26 00:10 12:08 00:00 14:32 07:40 00:00
Maximum _ 23,3 C 27,2 C 28,4 C 93 % 1012,5 hPa 0,2 l/m 4 min 2 min 1111 W/m 51,5 km/h
S-SO (7 Bft)
100,00 %
Durchschnitt _ 18,7 C 19,1 C 17,0 C 73 % 1011,7 hPa #1,2 l/m #9:04 h #1:20 h 431 W/m 18,0 km/h (3 Bft) 97,45 %
© 2021 W. Hausmann